| time (UTC) | temp C | wind direction | speed KPH | gust KPH | rain 1hr cm | rain 24hr cm | rain mn cm | humidity % | barometer mb |
| 20260503013730 | 12 | 344 | 8.0 | 17.7 | 0.00 | 0.00 | 0.00 | 52 | 1013.3 |
| 20260503013628 | 12 | 336 | 4.8 | 17.7 | 0.00 | 0.00 | 0.00 | 53 | 1013.3 |
| 20260503013526 | 12 | 337 | 8.0 | 19.3 | 0.00 | 0.00 | 0.00 | 53 | 1013.3 |
| 20260503013425 | 12 | 326 | 4.8 | 19.3 | 0.00 | 0.00 | 0.00 | 52 | 1013.3 |
| 20260503013343 | 12 | 333 | 6.4 | 19.3 | 0.00 | 0.00 | 0.00 | 53 | 1013.3 |
| 20260503013234 | 12 | 337 | 9.7 | 19.3 | 0.00 | 0.00 | 0.00 | 52 | 1013.3 |
| 20260503013147 | 12 | 326 | 11.3 | 19.3 | 0.00 | 0.00 | 0.00 | 52 | 1013.3 |
| 20260503013024 | 12 | 329 | 6.4 | 19.3 | 0.00 | 0.00 | 0.00 | 51 | 1013.3 |
| 20260503012943 | 12 | 333 | 8.0 | 19.3 | 0.00 | 0.00 | 0.00 | 53 | 1013.3 |
| 20260503012841 | 12 | 323 | 8.0 | 19.3 | 0.00 | 0.00 | 0.00 | 53 | 1013.1 |
| 20260503012739 | 12 | 323 | 9.7 | 19.3 | 0.00 | 0.00 | 0.00 | 52 | 1013.1 |
| 20260503012638 | 12 | 337 | 8.0 | 19.3 | 0.00 | 0.00 | 0.00 | 51 | 1013.1 |
| 20260503012558 | 12 | 333 | 6.4 | 19.3 | 0.00 | 0.00 | 0.00 | 51 | 1013.1 |
| 20260503012435 | 12 | 335 | 8.0 | 19.3 | 0.00 | 0.00 | 0.00 | 52 | 1013.1 |
| 20260503012337 | 12 | 335 | 11.3 | 19.3 | 0.00 | 0.00 | 0.00 | 51 | 1013.1 |
| 20260503012235 | 12 | 340 | 9.7 | 16.1 | 0.00 | 0.00 | 0.00 | 50 | 1013.1 |
| 20260503012154 | 12 | 318 | 8.0 | 17.7 | 0.00 | 0.00 | 0.00 | 52 | 1013.1 |
| 20260503012032 | 12 | 335 | 4.8 | 17.7 | 0.00 | 0.00 | 0.00 | 51 | 1013.1 |
| 20260503011931 | 12 | 337 | 3.2 | 17.7 | 0.00 | 0.00 | 0.00 | 52 | 1013.1 |
| 20260503011851 | 12 | 332 | 6.4 | 17.7 | 0.00 | 0.00 | 0.00 | 52 | 1013.1 |
| 20260503011730 | 12 | 346 | 9.7 | 17.7 | 0.00 | 0.00 | 0.00 | 51 | 1013.1 |
| 20260503011700 | 12 | 335 | 11.3 | 17.7 | 0.00 | 0.00 | 0.00 | 52 | 1013.1 |
| 20260503011541 | 12 | 322 | 9.7 | 17.7 | 0.00 | 0.00 | 0.00 | 51 | 1013.1 |
| 20260503011440 | 13 | 330 | 11.3 | 17.7 | 0.00 | 0.00 | 0.00 | 50 | 1013.1 |
| 20260503011357 | 13 | 335 | 11.3 | 17.7 | 0.00 | 0.00 | 0.00 | 51 | 1013.1 |
| 20260503011235 | 13 | 330 | 6.4 | 17.7 | 0.00 | 0.00 | 0.00 | 51 | 1013.1 |
| 20260503011135 | 13 | 329 | 4.8 | 17.7 | 0.00 | 0.00 | 0.00 | 51 | 1013.1 |
| 20260503011033 | 13 | 339 | 6.4 | 17.7 | 0.00 | 0.00 | 0.00 | 51 | 1013.1 |
| 20260503010932 | 13 | 342 | 4.8 | 17.7 | 0.00 | 0.00 | 0.00 | 51 | 1013.1 |
| 20260503010835 | 13 | 342 | 4.8 | 17.7 | 0.00 | 0.00 | 0.00 | 50 | 1013.1 |
| 20260503010732 | 13 | 343 | 12.9 | 17.7 | 0.00 | 0.00 | 0.00 | 51 | 1013.1 |
| 20260503010631 | 13 | 335 | 11.3 | 17.7 | 0.00 | 0.00 | 0.00 | 51 | 1013.1 |
| 20260503010529 | 13 | 352 | 8.0 | 16.1 | 0.00 | 0.00 | 0.00 | 51 | 1013.1 |
| 20260503010428 | 13 | 326 | 6.4 | 16.1 | 0.00 | 0.00 | 0.00 | 50 | 1013.1 |
| 20260503010327 | 13 | 332 | 8.0 | 16.1 | 0.00 | 0.00 | 0.00 | 49 | 1013.1 |
| 20260503010231 | 13 | 357 | 6.4 | 16.1 | 0.00 | 0.00 | 0.00 | 50 | 1013.1 |
| 20260503010202 | 13 | 333 | 6.4 | 16.1 | 0.00 | 0.00 | 0.00 | 49 | 1013.1 |
| 20260503010040 | 13 | 349 | 6.4 | 16.1 | 0.00 | 0.00 | 0.00 | 49 | 1013.1 |
| 20260503005938 | 13 | 330 | 8.0 | 16.1 | 0.00 | 0.00 | 0.00 | 49 | 1013.1 |
| 20260503005837 | 13 | 335 | 9.7 | 20.9 | 0.00 | 0.00 | 0.00 | 49 | 1013.1 |
| 20260503005737 | 13 | 337 | 9.7 | 20.9 | 0.00 | 0.00 | 0.00 | 48 | 1013.1 |
| 20260503005638 | 13 | 339 | 9.7 | 20.9 | 0.00 | 0.00 | 0.00 | 48 | 1013.1 |
| 20260503005541 | 13 | 335 | 9.7 | 29.0 | 0.00 | 0.00 | 0.00 | 49 | 1013.1 |
| 20260503005439 | 13 | 114 | 9.7 | 29.0 | 0.00 | 0.00 | 0.00 | 49 | 1013.1 |
| 20260503005336 | 13 | 337 | 11.3 | 29.0 | 0.00 | 0.00 | 0.00 | 48 | 1013.1 |
| 20260503005236 | 13 | 354 | 9.7 | 29.0 | 0.00 | 0.00 | 0.00 | 48 | 1013.1 |
| 20260503005135 | 13 | 330 | 4.8 | 29.0 | 0.00 | 0.00 | 0.00 | 48 | 1013.1 |
| 20260503005033 | 13 | 54 | 12.9 | 29.0 | 0.00 | 0.00 | 0.00 | 48 | 1013.1 |
| 20260503004952 | 13 | 329 | 8.0 | 29.0 | 0.00 | 0.00 | 0.00 | 48 | 1013.1 |
| 20260503004832 | 13 | 330 | 16.1 | 29.0 | 0.00 | 0.00 | 0.00 | 48 | 1013.1 |
| 20260503004755 | 13 | 332 | 19.3 | 29.0 | 0.00 | 0.00 | 0.00 | 48 | 1013.1 |
| 20260503004703 | 13 | 354 | 19.3 | 29.0 | 0.00 | 0.00 | 0.00 | 48 | 1013.1 |
| 20260503004540 | 13 | 350 | 17.7 | 25.7 | 0.00 | 0.00 | 0.00 | 47 | 1013.1 |
| 20260503004438 | 13 | 158 | 14.5 | 25.7 | 0.00 | 0.00 | 0.00 | 47 | 1013.1 |
| 20260503004337 | 13 | 333 | 11.3 | 22.5 | 0.00 | 0.00 | 0.00 | 47 | 1012.8 |
| 20260503004239 | 13 | 346 | 12.9 | 22.5 | 0.00 | 0.00 | 0.00 | 47 | 1012.8 |
| 20260503004137 | 13 | 329 | 14.5 | 22.5 | 0.00 | 0.00 | 0.00 | 47 | 1012.8 |
| 20260503004043 | 13 | 342 | 11.3 | 22.5 | 0.00 | 0.00 | 0.00 | 47 | 1012.8 |
| 20260503003940 | 13 | 288 | 9.7 | 20.9 | 0.00 | 0.00 | 0.00 | 47 | 1012.8 |
| 20260503003838 | 13 | 353 | 8.0 | 20.9 | 0.00 | 0.00 | 0.00 | 47 | 1012.8 |
| 20260503003737 | 13 | 335 | 6.4 | 20.9 | 0.00 | 0.00 | 0.00 | 47 | 1012.8 |
| 20260503003634 | 13 | 335 | 9.7 | 20.9 | 0.00 | 0.00 | 0.00 | 47 | 1012.8 |
| 20260503003535 | 13 | 326 | 11.3 | 20.9 | 0.00 | 0.00 | 0.00 | 46 | 1012.8 |
| 20260503003454 | 13 | 326 | 14.5 | 20.9 | 0.00 | 0.00 | 0.00 | 47 | 1012.8 |
| 20260503003336 | 13 | 346 | 9.7 | 17.7 | 0.00 | 0.00 | 0.00 | 46 | 1012.8 |
| 20260503003236 | 13 | 326 | 9.7 | 17.7 | 0.00 | 0.00 | 0.00 | 46 | 1012.8 |
| 20260503003206 | 13 | 349 | 8.0 | 17.7 | 0.00 | 0.00 | 0.00 | 47 | 1012.8 |
| 20260503003043 | 13 | 336 | 9.7 | 17.7 | 0.00 | 0.00 | 0.00 | 45 | 1012.8 |
| 20260503002941 | 13 | 346 | 4.8 | 14.5 | 0.00 | 0.00 | 0.00 | 46 | 1012.8 |
| 20260503002840 | 14 | 333 | 4.8 | 14.5 | 0.00 | 0.00 | 0.00 | 45 | 1012.5 |
| 20260503002738 | 14 | 352 | 8.0 | 14.5 | 0.00 | 0.00 | 0.00 | 45 | 1012.5 |
| 20260503002639 | 14 | 332 | 8.0 | 14.5 | 0.00 | 0.00 | 0.00 | 44 | 1012.5 |
| 20260503002539 | 14 | 346 | 8.0 | 14.5 | 0.00 | 0.00 | 0.00 | 46 | 1012.5 |
| 20260503002438 | 14 | 339 | 6.4 | 14.5 | 0.00 | 0.00 | 0.00 | 45 | 1012.5 |
| 20260503002336 | 14 | 340 | 4.8 | 14.5 | 0.00 | 0.00 | 0.00 | 45 | 1012.5 |
| 20260503002234 | 14 | 347 | 8.0 | 17.7 | 0.00 | 0.00 | 0.00 | 45 | 1012.5 |
| 20260503002156 | 14 | 330 | 8.0 | 17.7 | 0.00 | 0.00 | 0.00 | 45 | 1012.5 |
| 20260503002035 | 14 | 340 | 9.7 | 17.7 | 0.00 | 0.00 | 0.00 | 45 | 1012.5 |
| 20260503001953 | 14 | 326 | 6.4 | 17.7 | 0.00 | 0.00 | 0.00 | 44 | 1012.5 |
| 20260503001855 | 14 | 328 | 9.7 | 17.7 | 0.00 | 0.00 | 0.00 | 44 | 1012.5 |
| 20260503001733 | 14 | 332 | 8.0 | 17.7 | 0.00 | 0.00 | 0.00 | 44 | 1012.5 |
| 20260503001704 | 14 | 330 | 8.0 | 19.3 | 0.00 | 0.00 | 0.00 | 44 | 1012.5 |
| 20260503001522 | 14 | 347 | 9.7 | 19.3 | 0.00 | 0.00 | 0.00 | 44 | 1012.5 |
| 20260503001425 | 14 | 332 | 12.9 | 20.9 | 0.00 | 0.00 | 0.00 | 44 | 1012.5 |
| 20260503001343 | 14 | 339 | 9.7 | 20.9 | 0.00 | 0.00 | 0.00 | 43 | 1012.4 |
| 20260503001240 | 14 | 318 | 12.9 | 20.9 | 0.00 | 0.00 | 0.00 | 45 | 1012.4 |
| 20260503001159 | 14 | 330 | 6.4 | 20.9 | 0.00 | 0.00 | 0.00 | 43 | 1012.4 |
| 20260503001040 | 14 | 335 | 9.7 | 20.9 | 0.00 | 0.00 | 0.00 | 42 | 1012.4 |
| 20260503000937 | 14 | 340 | 12.9 | 20.9 | 0.00 | 0.00 | 0.00 | 43 | 1012.4 |
| 20260503000836 | 14 | 336 | 12.9 | 22.5 | 0.00 | 0.00 | 0.00 | 43 | 1012.4 |
| 20260503000733 | 14 | 323 | 8.0 | 22.5 | 0.00 | 0.00 | 0.00 | 43 | 1012.4 |
| 20260503000632 | 14 | 325 | 11.3 | 22.5 | 0.00 | 0.00 | 0.00 | 42 | 1012.4 |
| 20260503000530 | 14 | 316 | 11.3 | 22.5 | 0.00 | 0.00 | 0.00 | 42 | 1012.4 |
| 20260503000449 | 14 | 359 | 11.3 | 22.5 | 0.00 | 0.00 | 0.00 | 44 | 1012.4 |
| 20260503000347 | 14 | 322 | 16.1 | 22.5 | 0.00 | 0.00 | 0.00 | 44 | 1012.4 |
| 20260503000240 | 15 | 312 | 11.3 | 22.5 | 0.00 | 0.00 | 0.00 | 43 | 1012.4 |
| 20260503000149 | 15 | 332 | 4.8 | 22.5 | 0.00 | 0.00 | 0.00 | 44 | 1012.4 |
| 20260503000026 | 15 | 336 | 12.9 | 22.5 | 0.00 | 0.00 | 0.00 | 44 | 1012.4 |
| 20260502235944 | 15 | 315 | 16.1 | 22.5 | 0.00 | 0.00 | 0.00 | 44 | 1012.4 |
| 20260502235902 | 15 | 332 | 9.7 | 17.7 | 0.00 | 0.00 | 0.00 | 42 | 1012.3 |
| 20260502235740 | 15 | 330 | 8.0 | 17.7 | 0.00 | 0.00 | 0.00 | 42 | 1012.3 |
| 20260502235638 | 15 | 323 | 11.3 | 20.9 | 0.00 | 0.00 | 0.00 | 43 | 1012.3 |
| 20260502235538 | 15 | 330 | 11.3 | 20.9 | 0.00 | 0.00 | 0.00 | 43 | 1012.3 |
| 20260502235440 | 15 | 333 | 11.3 | 20.9 | 0.00 | 0.00 | 0.00 | 42 | 1012.3 |
| 20260502235339 | 15 | 325 | 11.3 | 22.5 | 0.00 | 0.00 | 0.00 | 42 | 1012.3 |
| 20260502235238 | 15 | 339 | 8.0 | 22.5 | 0.00 | 0.00 | 0.00 | 44 | 1012.3 |
| 20260502235158 | 15 | 330 | 6.4 | 22.5 | 0.00 | 0.00 | 0.00 | 42 | 1012.3 |
| 20260502235035 | 15 | 305 | 8.0 | 22.5 | 0.00 | 0.00 | 0.00 | 42 | 1012.3 |
| 20260502234934 | 15 | 325 | 8.0 | 22.5 | 0.00 | 0.00 | 0.00 | 42 | 1012.3 |
| 20260502234832 | 15 | 322 | 11.3 | 22.5 | 0.00 | 0.00 | 0.00 | 42 | 1012.3 |
| 20260502234734 | 15 | 339 | 11.3 | 30.6 | 0.00 | 0.00 | 0.00 | 43 | 1012.3 |
| 20260502234703 | 15 | 330 | 9.7 | 30.6 | 0.00 | 0.00 | 0.00 | 41 | 1012.3 |
| 20260502234539 | 15 | 332 | 14.5 | 30.6 | 0.00 | 0.00 | 0.00 | 41 | 1012.3 |
| 20260502234438 | 15 | 313 | 12.9 | 30.6 | 0.00 | 0.00 | 0.00 | 41 | 1012.3 |
| 20260502234334 | 15 | 339 | 8.0 | 30.6 | 0.00 | 0.00 | 0.00 | 41 | 1012.1 |
| 20260502234234 | 15 | 336 | 14.5 | 30.6 | 0.00 | 0.00 | 0.00 | 42 | 1012.1 |
| 20260502234133 | 15 | 325 | 12.9 | 30.6 | 0.00 | 0.00 | 0.00 | 42 | 1012.1 |
| 20260502234051 | 15 | 336 | 11.3 | 30.6 | 0.00 | 0.00 | 0.00 | 42 | 1012.1 |
| 20260502233927 | 15 | 325 | 14.5 | 30.6 | 0.00 | 0.00 | 0.00 | 42 | 1012.1 |
| 20260502233827 | 15 | 332 | 16.1 | 30.6 | 0.00 | 0.00 | 0.00 | 44 | 1012.1 |
| 20260502233725 | 15 | 332 | 12.9 | 25.7 | 0.00 | 0.00 | 0.00 | 42 | 1012.1 |
| 20260502233624 | 15 | 309 | 11.3 | 19.3 | 0.00 | 0.00 | 0.00 | 43 | 1012.1 |
| 20260502233543 | 15 | 312 | 11.3 | 19.3 | 0.00 | 0.00 | 0.00 | 43 | 1012.1 |
| 20260502233501 | 15 | 333 | 8.0 | 19.3 | 0.00 | 0.00 | 0.00 | 41 | 1012.1 |
| 20260502233336 | 15 | 325 | 11.3 | 19.3 | 0.00 | 0.00 | 0.00 | 42 | 1012.1 |
| 20260502233255 | 15 | 326 | 9.7 | 19.3 | 0.00 | 0.00 | 0.00 | 41 | 1012.1 |
| 20260502233204 | 15 | 328 | 8.0 | 19.3 | 0.00 | 0.00 | 0.00 | 42 | 1012.1 |
| 20260502233101 | 15 | 332 | 8.0 | 19.3 | 0.00 | 0.00 | 0.00 | 40 | 1012.1 |
| 20260502232943 | 15 | 332 | 8.0 | 19.3 | 0.00 | 0.00 | 0.00 | 41 | 1012.1 |
| 20260502232841 | 15 | 329 | 9.7 | 19.3 | 0.00 | 0.00 | 0.00 | 41 | 1012.0 |
| 20260502232741 | 15 | 325 | 12.9 | 19.3 | 0.00 | 0.00 | 0.00 | 41 | 1012.0 |
| 20260502232640 | 15 | 335 | 14.5 | 17.7 | 0.00 | 0.00 | 0.00 | 41 | 1012.0 |
| 20260502232558 | 15 | 333 | 11.3 | 19.3 | 0.00 | 0.00 | 0.00 | 42 | 1012.0 |
| 20260502232456 | 15 | 347 | 8.0 | 22.5 | 0.00 | 0.00 | 0.00 | 41 | 1012.0 |
| 20260502232336 | 15 | 322 | 6.4 | 22.5 | 0.00 | 0.00 | 0.00 | 41 | 1012.0 |
| 20260502232255 | 15 | 329 | 8.0 | 22.5 | 0.00 | 0.00 | 0.00 | 43 | 1012.0 |
| 20260502232157 | 15 | 333 | 4.8 | 22.5 | 0.00 | 0.00 | 0.00 | 40 | 1012.0 |
| 20260502232035 | 15 | 320 | 8.0 | 25.7 | 0.00 | 0.00 | 0.00 | 40 | 1012.0 |
| 20260502231935 | 15 | 323 | 3.2 | 25.7 | 0.00 | 0.00 | 0.00 | 40 | 1012.0 |
| 20260502231832 | 15 | 326 | 8.0 | 25.7 | 0.00 | 0.00 | 0.00 | 41 | 1012.0 |
| 20260502231802 | 15 | 333 | 12.9 | 25.7 | 0.00 | 0.00 | 0.00 | 39 | 1012.0 |
| 20260502231649 | 15 | 322 | 14.5 | 25.7 | 0.00 | 0.00 | 0.00 | 40 | 1012.0 |
| 20260502231527 | 15 | 330 | 16.1 | 25.7 | 0.00 | 0.00 | 0.00 | 41 | 1012.0 |
| 20260502231426 | 15 | 322 | 11.3 | 25.7 | 0.00 | 0.00 | 0.00 | 39 | 1012.0 |
| 20260502231328 | 15 | 326 | 11.3 | 25.7 | 0.00 | 0.00 | 0.00 | 39 | 1012.0 |
| 20260502231226 | 15 | 291 | 12.9 | 25.7 | 0.00 | 0.00 | 0.00 | 38 | 1012.0 |
| 20260502231126 | 15 | 332 | 14.5 | 25.7 | 0.00 | 0.00 | 0.00 | 39 | 1012.0 |
| 20260502231043 | 15 | 330 | 8.0 | 25.7 | 0.00 | 0.00 | 0.00 | 39 | 1012.0 |
| 20260502230941 | 15 | 323 | 8.0 | 25.7 | 0.00 | 0.00 | 0.00 | 38 | 1012.0 |
| 20260502230859 | 15 | 306 | 12.9 | 25.7 | 0.00 | 0.00 | 0.00 | 39 | 1012.0 |
| 20260502230735 | 15 | 313 | 11.3 | 25.7 | 0.00 | 0.00 | 0.00 | 41 | 1012.0 |
| 20260502230638 | 15 | 330 | 11.3 | 25.7 | 0.00 | 0.00 | 0.00 | 40 | 1012.0 |
| 20260502230537 | 15 | 322 | 9.7 | 25.7 | 0.00 | 0.00 | 0.00 | 42 | 1012.0 |
| 20260502230436 | 15 | 336 | 14.5 | 25.7 | 0.00 | 0.00 | 0.00 | 42 | 1012.0 |
| 20260502230333 | 15 | 318 | 9.7 | 22.5 | 0.00 | 0.00 | 0.00 | 40 | 1012.0 |
| 20260502230243 | 15 | 316 | 9.7 | 22.5 | 0.00 | 0.00 | 0.00 | 40 | 1012.0 |
| 20260502230152 | 16 | 328 | 11.3 | 22.5 | 0.00 | 0.00 | 0.00 | 42 | 1012.0 |
| 20260502230029 | 16 | 329 | 8.0 | 19.3 | 0.00 | 0.00 | 0.00 | 41 | 1012.0 |
| 20260502225931 | 16 | 344 | 8.0 | 19.3 | 0.00 | 0.00 | 0.00 | 41 | 1012.0 |
| 20260502225830 | 16 | 342 | 6.4 | 19.3 | 0.00 | 0.00 | 0.00 | 42 | 1011.9 |
| 20260502225729 | 16 | 339 | 3.2 | 19.3 | 0.00 | 0.00 | 0.00 | 41 | 1011.9 |
| 20260502225647 | 16 | 330 | 11.3 | 19.3 | 0.00 | 0.00 | 0.00 | 41 | 1011.9 |
| 20260502225524 | 16 | 343 | 4.8 | 19.3 | 0.00 | 0.00 | 0.00 | 41 | 1011.9 |
| 20260502225442 | 16 | 325 | 6.4 | 19.3 | 0.00 | 0.00 | 0.00 | 42 | 1011.9 |
| 20260502225341 | 16 | 325 | 8.0 | 19.3 | 0.00 | 0.00 | 0.00 | 42 | 1011.9 |
| 20260502225141 | 16 | 325 | 12.9 | 19.3 | 0.00 | 0.00 | 0.00 | 41 | 1011.9 |
| 20260502225040 | 16 | 326 | 9.7 | 16.1 | 0.00 | 0.00 | 0.00 | 41 | 1011.9 |
| 20260502224958 | 16 | 349 | 8.0 | 16.1 | 0.00 | 0.00 | 0.00 | 41 | 1011.9 |
| 20260502224919 | 16 | 319 | 8.0 | 16.1 | 0.00 | 0.00 | 0.00 | 40 | 1011.9 |
| 20260502224817 | 16 | 332 | 4.8 | 16.1 | 0.00 | 0.00 | 0.00 | 40 | 1011.9 |
| 20260502224724 | 16 | 325 | 3.2 | 16.1 | 0.00 | 0.00 | 0.00 | 41 | 1011.9 |
| 20260502224540 | 16 | 354 | 3.2 | 20.9 | 0.00 | 0.00 | 0.00 | 40 | 1011.9 |
| 20260502224438 | 16 | 352 | 8.0 | 20.9 | 0.00 | 0.00 | 0.00 | 40 | 1011.9 |
| 20260502224337 | 16 | 24 | 6.4 | 20.9 | 0.00 | 0.00 | 0.00 | 40 | 1011.8 |
| 20260502224239 | 16 | 340 | 1.6 | 20.9 | 0.00 | 0.00 | 0.00 | 40 | 1011.8 |
| 20260502224157 | 16 | 335 | 6.4 | 20.9 | 0.00 | 0.00 | 0.00 | 39 | 1011.8 |
| 20260502224035 | 16 | 347 | 8.0 | 20.9 | 0.00 | 0.00 | 0.00 | 39 | 1011.8 |
| 20260502223932 | 16 | 353 | 9.7 | 20.9 | 0.00 | 0.00 | 0.00 | 40 | 1011.8 |
| 20260502223832 | 16 | 340 | 12.9 | 20.9 | 0.00 | 0.00 | 0.00 | 40 | 1011.8 |
| 20260502223729 | 16 | 328 | 12.9 | 20.9 | 0.00 | 0.00 | 0.00 | 41 | 1011.8 |
| 20260502223628 | 16 | 343 | 9.7 | 20.9 | 0.00 | 0.00 | 0.00 | 42 | 1011.8 |
| 20260502223548 | 16 | 335 | 8.0 | 20.9 | 0.00 | 0.00 | 0.00 | 40 | 1011.8 |
| 20260502223429 | 16 | 305 | 12.9 | 20.9 | 0.00 | 0.00 | 0.00 | 39 | 1011.8 |
| 20260502223329 | 16 | 330 | 11.3 | 20.9 | 0.00 | 0.00 | 0.00 | 40 | 1011.8 |
| 20260502223239 | 16 | 323 | 12.9 | 20.9 | 0.00 | 0.00 | 0.00 | 40 | 1011.8 |
| 20260502223149 | 16 | 333 | 17.7 | 20.9 | 0.00 | 0.00 | 0.00 | 39 | 1011.8 |
| 20260502223028 | 16 | 344 | 6.4 | 20.9 | 0.00 | 0.00 | 0.00 | 40 | 1011.8 |
| 20260502222926 | 16 | 330 | 14.5 | 20.9 | 0.00 | 0.00 | 0.00 | 40 | 1011.8 |
| 20260502222824 | 16 | 113 | 8.0 | 20.9 | 0.00 | 0.00 | 0.00 | 40 | 1011.9 |
| 20260502222727 | 15 | 337 | 9.7 | 20.9 | 0.00 | 0.00 | 0.00 | 40 | 1011.9 |
| 20260502222645 | 15 | 346 | 4.8 | 20.9 | 0.00 | 0.00 | 0.00 | 40 | 1011.9 |
| 20260502222543 | 15 | 353 | 3.2 | 20.9 | 0.00 | 0.00 | 0.00 | 40 | 1011.9 |
| 20260502222440 | 15 | 326 | 6.4 | 20.9 | 0.00 | 0.00 | 0.00 | 38 | 1011.9 |
| 20260502222356 | 15 | 335 | 8.0 | 20.9 | 0.00 | 0.00 | 0.00 | 39 | 1011.9 |
| 20260502222253 | 15 | 353 | 8.0 | 20.9 | 0.00 | 0.00 | 0.00 | 39 | 1011.9 |
| 20260502222130 | 15 | 360 | 8.0 | 17.7 | 0.00 | 0.00 | 0.00 | 38 | 1011.9 |
| 20260502222028 | 15 | 360 | 11.3 | 17.7 | 0.00 | 0.00 | 0.00 | 38 | 1011.9 |
| 20260502221925 | 15 | 329 | 14.5 | 17.7 | 0.00 | 0.00 | 0.00 | 41 | 1011.9 |
| 20260502221827 | 15 | 332 | 4.8 | 16.1 | 0.00 | 0.00 | 0.00 | 39 | 1011.9 |
| 20260502221726 | 15 | 342 | 6.4 | 16.1 | 0.00 | 0.00 | 0.00 | 39 | 1011.9 |
| 20260502221655 | 15 | 44 | 6.4 | 17.7 | 0.00 | 0.00 | 0.00 | 39 | 1011.9 |
| 20260502221534 | 15 | 326 | 6.4 | 19.3 | 0.00 | 0.00 | 0.00 | 38 | 1011.9 |
| 20260502221433 | 15 | 330 | 6.4 | 19.3 | 0.00 | 0.00 | 0.00 | 40 | 1011.9 |
| 20260502221331 | 15 | 333 | 1.6 | 19.3 | 0.00 | 0.00 | 0.00 | 38 | 1011.8 |
| 20260502221229 | 15 | 329 | 1.6 | 19.3 | 0.00 | 0.00 | 0.00 | 38 | 1011.8 |
| 20260502221130 | 15 | 349 | 9.7 | 19.3 | 0.00 | 0.00 | 0.00 | 40 | 1011.8 |
| 20260502221028 | 15 | 329 | 9.7 | 19.3 | 0.00 | 0.00 | 0.00 | 41 | 1011.8 |
| 20260502220947 | 15 | 330 | 6.4 | 19.3 | 0.00 | 0.00 | 0.00 | 41 | 1011.8 |
| 20260502220825 | 15 | 332 | 8.0 | 19.3 | 0.00 | 0.00 | 0.00 | 40 | 1011.8 |
| 20260502220743 | 15 | 335 | 12.9 | 19.3 | 0.00 | 0.00 | 0.00 | 39 | 1011.8 |
| 20260502220642 | 15 | 326 | 12.9 | 19.3 | 0.00 | 0.00 | 0.00 | 40 | 1011.8 |
| 20260502220541 | 15 | 326 | 8.0 | 19.3 | 0.00 | 0.00 | 0.00 | 39 | 1011.8 |
| 20260502220424 | 15 | 328 | 14.5 | 19.3 | 0.00 | 0.00 | 0.00 | 38 | 1011.8 |
| 20260502220343 | 15 | 330 | 17.7 | 19.3 | 0.00 | 0.00 | 0.00 | 41 | 1011.8 |
| 20260502220241 | 15 | 335 | 12.9 | 17.7 | 0.00 | 0.00 | 0.00 | 39 | 1011.8 |
| 20260502220150 | 15 | 325 | 6.4 | 17.7 | 0.00 | 0.00 | 0.00 | 40 | 1011.8 |
| 20260502220026 | 15 | 315 | 9.7 | 19.3 | 0.00 | 0.00 | 0.00 | 39 | 1011.8 |
| 20260502215945 | 15 | 328 | 8.0 | 19.3 | 0.00 | 0.00 | 0.00 | 39 | 1011.8 |
| 20260502215842 | 15 | 325 | 9.7 | 19.3 | 0.00 | 0.00 | 0.00 | 41 | 1011.8 |
| 20260502215740 | 15 | 318 | 8.0 | 19.3 | 0.00 | 0.00 | 0.00 | 40 | 1011.8 |
| 20260502215658 | 15 | 320 | 6.4 | 19.3 | 0.00 | 0.00 | 0.00 | 41 | 1011.8 |
| 20260502215539 | 15 | 326 | 6.4 | 19.3 | 0.00 | 0.00 | 0.00 | 42 | 1011.8 |
| 20260502215437 | 15 | 319 | 3.2 | 19.3 | 0.00 | 0.00 | 0.00 | 41 | 1011.8 |
| 20260502215335 | 15 | 301 | 8.0 | 19.3 | 0.00 | 0.00 | 0.00 | 39 | 1011.8 |
| 20260502215234 | 15 | 343 | 16.1 | 19.3 | 0.00 | 0.00 | 0.00 | 39 | 1011.8 |
| 20260502215135 | 15 | 335 | 9.7 | 19.3 | 0.00 | 0.00 | 0.00 | 39 | 1011.8 |
| 20260502215034 | 15 | 333 | 11.3 | 20.9 | 0.00 | 0.00 | 0.00 | 39 | 1011.8 |
| 20260502214936 | 15 | 340 | 12.9 | 20.9 | 0.00 | 0.00 | 0.00 | 38 | 1011.8 |
| 20260502214834 | 15 | 329 | 14.5 | 20.9 | 0.00 | 0.00 | 0.00 | 40 | 1011.8 |
| 20260502214742 | 15 | 305 | 11.3 | 20.9 | 0.00 | 0.00 | 0.00 | 39 | 1011.8 |
| 20260502214650 | 15 | 332 | 9.7 | 20.9 | 0.00 | 0.00 | 0.00 | 39 | 1011.8 |
| 20260502214528 | 15 | 330 | 8.0 | 20.9 | 0.00 | 0.00 | 0.00 | 39 | 1011.8 |
| 20260502214426 | 15 | 337 | 11.3 | 20.9 | 0.00 | 0.00 | 0.00 | 39 | 1011.8 |
| 20260502214324 | 15 | 332 | 12.9 | 20.9 | 0.00 | 0.00 | 0.00 | 38 | 1011.5 |
| 20260502214226 | 15 | 332 | 14.5 | 20.9 | 0.00 | 0.00 | 0.00 | 38 | 1011.5 |
| 20260502214144 | 16 | 72 | 14.5 | 20.9 | 0.00 | 0.00 | 0.00 | 38 | 1011.5 |
| 20260502214103 | 16 | 354 | 12.9 | 20.9 | 0.00 | 0.00 | 0.00 | 38 | 1011.5 |
| 20260502213940 | 16 | 328 | 11.3 | 20.9 | 0.00 | 0.00 | 0.00 | 38 | 1011.5 |
| 20260502213839 | 16 | 342 | 11.3 | 20.9 | 0.00 | 0.00 | 0.00 | 39 | 1011.5 |
| 20260502213758 | 16 | 332 | 8.0 | 20.9 | 0.00 | 0.00 | 0.00 | 38 | 1011.5 |
| 20260502213635 | 16 | 349 | 12.9 | 20.9 | 0.00 | 0.00 | 0.00 | 40 | 1011.5 |
| 20260502213533 | 16 | 349 | 12.9 | 20.9 | 0.00 | 0.00 | 0.00 | 40 | 1011.5 |
| 20260502213436 | 16 | 343 | 14.5 | 20.9 | 0.00 | 0.00 | 0.00 | 41 | 1011.5 |
| 20260502213355 | 16 | 339 | 11.3 | 20.9 | 0.00 | 0.00 | 0.00 | 40 | 1011.5 |
| 20260502213232 | 16 | 330 | 11.3 | 22.5 | 0.00 | 0.00 | 0.00 | 40 | 1011.5 |
| 20260502213202 | 16 | 342 | 6.4 | 22.5 | 0.00 | 0.00 | 0.00 | 40 | 1011.5 |
| 20260502213038 | 16 | 326 | 6.4 | 22.5 | 0.00 | 0.00 | 0.00 | 40 | 1011.5 |
| 20260502212937 | 16 | 313 | 8.0 | 22.5 | 0.00 | 0.00 | 0.00 | 40 | 1011.5 |
| 20260502212835 | 16 | 329 | 6.4 | 22.5 | 0.00 | 0.00 | 0.00 | 40 | 1011.7 |
| 20260502212734 | 16 | 328 | 8.0 | 27.4 | 0.00 | 0.00 | 0.00 | 39 | 1011.7 |
| 20260502212637 | 16 | 288 | 9.7 | 27.4 | 0.00 | 0.00 | 0.00 | 40 | 1011.7 |
| 20260502212539 | 16 | 323 | 8.0 | 27.4 | 0.00 | 0.00 | 0.00 | 39 | 1011.7 |
| 20260502212437 | 16 | 332 | 12.9 | 27.4 | 0.00 | 0.00 | 0.00 | 40 | 1011.7 |
| 20260502212339 | 16 | 329 | 11.3 | 27.4 | 0.00 | 0.00 | 0.00 | 40 | 1011.7 |
| 20260502212237 | 16 | 320 | 8.0 | 27.4 | 0.00 | 0.00 | 0.00 | 40 | 1011.7 |
| 20260502212134 | 16 | 328 | 12.9 | 27.4 | 0.00 | 0.00 | 0.00 | 39 | 1011.7 |
| 20260502212032 | 16 | 340 | 8.0 | 27.4 | 0.00 | 0.00 | 0.00 | 38 | 1011.7 |
| 20260502211933 | 16 | 336 | 17.7 | 27.4 | 0.00 | 0.00 | 0.00 | 38 | 1011.7 |
| 20260502211833 | 16 | 344 | 11.3 | 22.5 | 0.00 | 0.00 | 0.00 | 40 | 1011.7 |
| 20260502211730 | 16 | 342 | 16.1 | 20.9 | 0.00 | 0.00 | 0.00 | 39 | 1011.7 |
| 20260502211700 | 16 | 339 | 8.0 | 20.9 | 0.00 | 0.00 | 0.00 | 40 | 1011.7 |
| 20260502211537 | 15 | 333 | 4.8 | 22.5 | 0.00 | 0.00 | 0.00 | 38 | 1011.7 |
| 20260502211438 | 15 | 328 | 11.3 | 22.5 | 0.00 | 0.00 | 0.00 | 38 | 1011.7 |
| 20260502211336 | 15 | 347 | 12.9 | 27.4 | 0.00 | 0.00 | 0.00 | 39 | 1011.8 |
| 20260502211239 | 15 | 332 | 6.4 | 27.4 | 0.00 | 0.00 | 0.00 | 40 | 1011.8 |
| 20260502211137 | 15 | 330 | 8.0 | 27.4 | 0.00 | 0.00 | 0.00 | 39 | 1011.8 |
| 20260502211034 | 15 | 322 | 12.9 | 27.4 | 0.00 | 0.00 | 0.00 | 41 | 1011.8 |
| 20260502210932 | 15 | 333 | 12.9 | 27.4 | 0.00 | 0.00 | 0.00 | 39 | 1011.8 |
| 20260502210830 | 15 | 323 | 12.9 | 27.4 | 0.00 | 0.00 | 0.00 | 38 | 1011.8 |
| 20260502210728 | 15 | 318 | 16.1 | 27.4 | 0.00 | 0.00 | 0.00 | 39 | 1011.8 |
| 20260502210631 | 15 | 305 | 14.5 | 27.4 | 0.00 | 0.00 | 0.00 | 40 | 1011.8 |
| 20260502210534 | 15 | 337 | 11.3 | 27.4 | 0.00 | 0.00 | 0.00 | 41 | 1011.8 |
| 20260502210431 | 15 | 357 | 11.3 | 27.4 | 0.00 | 0.00 | 0.00 | 41 | 1011.8 |
| 20260502210349 | 15 | 328 | 8.0 | 27.4 | 0.00 | 0.00 | 0.00 | 42 | 1011.8 |
| 20260502210246 | 15 | 335 | 14.5 | 27.4 | 0.00 | 0.00 | 0.00 | 42 | 1011.8 |
| 20260502210217 | 15 | 335 | 12.9 | 27.4 | 0.00 | 0.00 | 0.00 | 42 | 1011.8 |
| 20260502210052 | 15 | 336 | 8.0 | 27.4 | 0.00 | 0.00 | 0.00 | 40 | 1011.8 |
| 20260502205930 | 15 | 322 | 11.3 | 27.4 | 0.00 | 0.00 | 0.00 | 39 | 1011.8 |
| 20260502205827 | 15 | 335 | 9.7 | 27.4 | 0.00 | 0.00 | 0.00 | 39 | 1011.8 |
| 20260502205730 | 15 | 332 | 16.1 | 27.4 | 0.00 | 0.00 | 0.00 | 41 | 1011.8 |
| 20260502205628 | 15 | 330 | 8.0 | 20.9 | 0.00 | 0.00 | 0.00 | 39 | 1011.8 |
| 20260502205526 | 15 | 347 | 6.4 | 20.9 | 0.00 | 0.00 | 0.00 | 39 | 1011.8 |
| 20260502205426 | 15 | 325 | 4.8 | 22.5 | 0.00 | 0.00 | 0.00 | 40 | 1011.8 |
| 20260502205324 | 15 | 316 | 8.0 | 29.0 | 0.00 | 0.00 | 0.00 | 38 | 1011.8 |
| 20260502205226 | 15 | 339 | 12.9 | 29.0 | 0.00 | 0.00 | 0.00 | 39 | 1011.8 |
| 20260502205128 | 15 | 336 | 8.0 | 29.0 | 0.00 | 0.00 | 0.00 | 39 | 1011.8 |
| 20260502205047 | 15 | 335 | 11.3 | 29.0 | 0.00 | 0.00 | 0.00 | 39 | 1011.8 |
| 20260502205005 | 15 | 344 | 12.9 | 29.0 | 0.00 | 0.00 | 0.00 | 41 | 1011.8 |
| 20260502204842 | 15 | 326 | 9.7 | 29.0 | 0.00 | 0.00 | 0.00 | 39 | 1011.8 |
| 20260502204732 | 15 | 335 | 9.7 | 29.0 | 0.00 | 0.00 | 0.00 | 37 | 1011.8 |
| 20260502204641 | 15 | 335 | 11.3 | 29.0 | 0.00 | 0.00 | 0.00 | 38 | 1011.8 |
| 20260502204544 | 15 | 336 | 11.3 | 29.0 | 0.00 | 0.00 | 0.00 | 37 | 1011.8 |
| 20260502204503 | 15 | 326 | 14.5 | 29.0 | 0.00 | 0.00 | 0.00 | 40 | 1011.8 |
| 20260502204339 | 15 | 336 | 8.0 | 22.5 | 0.00 | 0.00 | 0.00 | 38 | 1011.9 |
| 20260502204242 | 15 | 312 | 9.7 | 22.5 | 0.00 | 0.00 | 0.00 | 39 | 1011.9 |
| 20260502204202 | 15 | 332 | 11.3 | 22.5 | 0.00 | 0.00 | 0.00 | 38 | 1011.9 |
| 20260502204059 | 15 | 325 | 6.4 | 22.5 | 0.00 | 0.00 | 0.00 | 39 | 1011.9 |
| 20260502203935 | 15 | 247 | 12.9 | 22.5 | 0.00 | 0.00 | 0.00 | 40 | 1011.9 |
| 20260502203834 | 15 | 323 | 12.9 | 27.4 | 0.00 | 0.00 | 0.00 | 40 | 1011.9 |
| 20260502203733 | 15 | 311 | 14.5 | 27.4 | 0.00 | 0.00 | 0.00 | 38 | 1011.9 |
| 20260502203632 | 15 | 322 | 14.5 | 27.4 | 0.00 | 0.00 | 0.00 | 39 | 1011.9 |
| 20260502203534 | 15 | 325 | 12.9 | 27.4 | 0.00 | 0.00 | 0.00 | 38 | 1011.9 |
| 20260502203433 | 15 | 343 | 4.8 | 27.4 | 0.00 | 0.00 | 0.00 | 38 | 1011.9 |
| 20260502203331 | 15 | 340 | 3.2 | 27.4 | 0.00 | 0.00 | 0.00 | 39 | 1011.9 |
| 20260502203250 | 15 | 339 | 6.4 | 27.4 | 0.00 | 0.00 | 0.00 | 39 | 1011.9 |
| 20260502203159 | 15 | 325 | 9.7 | 27.4 | 0.00 | 0.00 | 0.00 | 39 | 1011.9 |
| 20260502203036 | 15 | 330 | 14.5 | 27.4 | 0.00 | 0.00 | 0.00 | 40 | 1011.9 |
| 20260502202934 | 15 | 322 | 6.4 | 24.1 | 0.00 | 0.00 | 0.00 | 40 | 1011.9 |
| 20260502202833 | 15 | 315 | 12.9 | 24.1 | 0.00 | 0.00 | 0.00 | 39 | 1011.9 |
| 20260502202735 | 15 | 335 | 16.1 | 22.5 | 0.00 | 0.00 | 0.00 | 39 | 1011.9 |
| 20260502202633 | 15 | 319 | 12.9 | 20.9 | 0.00 | 0.00 | 0.00 | 38 | 1011.9 |
| 20260502202532 | 15 | 330 | 9.7 | 20.9 | 0.00 | 0.00 | 0.00 | 36 | 1011.9 |
| 20260502202430 | 15 | 326 | 11.3 | 20.9 | 0.00 | 0.00 | 0.00 | 37 | 1011.9 |
| 20260502202331 | 15 | 330 | 14.5 | 20.9 | 0.00 | 0.00 | 0.00 | 38 | 1011.9 |
| 20260502202228 | 15 | 323 | 8.0 | 22.5 | 0.00 | 0.00 | 0.00 | 40 | 1011.9 |
| 20260502202133 | 15 | 328 | 8.0 | 22.5 | 0.00 | 0.00 | 0.00 | 38 | 1011.9 |
| 20260502202031 | 15 | 329 | 16.1 | 22.5 | 0.00 | 0.00 | 0.00 | 39 | 1011.9 |
| 20260502201930 | 15 | 339 | 9.7 | 22.5 | 0.00 | 0.00 | 0.00 | 36 | 1011.9 |
| 20260502201828 | 15 | 329 | 14.5 | 22.5 | 0.00 | 0.00 | 0.00 | 39 | 1011.9 |
| 20260502201727 | 15 | 325 | 14.5 | 22.5 | 0.00 | 0.00 | 0.00 | 38 | 1011.9 |
| 20260502201656 | 15 | 329 | 11.3 | 24.1 | 0.00 | 0.00 | 0.00 | 38 | 1011.9 |
| 20260502201534 | 15 | 325 | 12.9 | 25.7 | 0.00 | 0.00 | 0.00 | 36 | 1011.9 |
| 20260502201436 | 15 | 333 | 14.5 | 25.7 | 0.00 | 0.00 | 0.00 | 36 | 1011.9 |
| 20260502201335 | 16 | 333 | 9.7 | 25.7 | 0.00 | 0.00 | 0.00 | 36 | 1011.7 |
| 20260502201234 | 16 | 326 | 12.9 | 25.7 | 0.00 | 0.00 | 0.00 | 36 | 1011.7 |
| 20260502201133 | 16 | 340 | 16.1 | 30.6 | 0.00 | 0.00 | 0.00 | 36 | 1011.7 |
| 20260502201031 | 16 | 339 | 14.5 | 30.6 | 0.00 | 0.00 | 0.00 | 35 | 1011.7 |
| 20260502200929 | 16 | 250 | 12.9 | 30.6 | 0.00 | 0.00 | 0.00 | 35 | 1011.7 |
| 20260502200830 | 16 | 340 | 14.5 | 30.6 | 0.00 | 0.00 | 0.00 | 34 | 1011.7 |
| 20260502200733 | 16 | 356 | 11.3 | 30.6 | 0.00 | 0.00 | 0.00 | 35 | 1011.7 |
| 20260502200631 | 16 | 328 | 17.7 | 30.6 | 0.00 | 0.00 | 0.00 | 34 | 1011.7 |
| 20260502200530 | 16 | 191 | 11.3 | 30.6 | 0.00 | 0.00 | 0.00 | 35 | 1011.7 |
| 20260502200428 | 16 | 330 | 14.5 | 30.6 | 0.00 | 0.00 | 0.00 | 35 | 1011.7 |
| 20260502200326 | 16 | 323 | 19.3 | 30.6 | 0.00 | 0.00 | 0.00 | 35 | 1011.7 |
| 20260502200244 | 16 | 332 | 12.9 | 25.7 | 0.00 | 0.00 | 0.00 | 37 | 1011.7 |
| 20260502200216 | 16 | 333 | 14.5 | 27.4 | 0.00 | 0.00 | 0.00 | 36 | 1011.7 |
| 20260502200035 | 16 | 330 | 12.9 | 29.0 | 0.00 | 0.00 | 0.00 | 36 | 1011.7 |
| 20260502195933 | 16 | 319 | 9.7 | 29.0 | 0.00 | 0.00 | 0.00 | 34 | 1011.7 |
| 20260502195832 | 16 | 335 | 14.5 | 29.0 | 0.00 | 0.00 | 0.00 | 34 | 1012.1 |
| 20260502195731 | 16 | 344 | 11.3 | 29.0 | 0.00 | 0.00 | 0.00 | 36 | 1012.1 |
| 20260502195648 | 16 | 32 | 12.9 | 29.0 | 0.00 | 0.00 | 0.00 | 35 | 1012.1 |
| 20260502195525 | 16 | 260 | 16.1 | 29.0 | 0.00 | 0.00 | 0.00 | 36 | 1012.1 |
| 20260502195424 | 16 | 346 | 4.8 | 29.0 | 0.00 | 0.00 | 0.00 | 36 | 1012.1 |
| 20260502195343 | 16 | 328 | 20.9 | 29.0 | 0.00 | 0.00 | 0.00 | 35 | 1012.1 |
| 20260502195229 | 16 | 325 | 20.9 | 29.0 | 0.00 | 0.00 | 0.00 | 37 | 1012.1 |
| 20260502195146 | 16 | 322 | 17.7 | 29.0 | 0.00 | 0.00 | 0.00 | 37 | 1012.1 |
| 20260502195105 | 16 | 325 | 12.9 | 29.0 | 0.00 | 0.00 | 0.00 | 37 | 1012.1 |
| 20260502194942 | 16 | 323 | 14.5 | 29.0 | 0.00 | 0.00 | 0.00 | 36 | 1012.1 |
| 20260502194840 | 16 | 312 | 9.7 | 29.0 | 0.00 | 0.00 | 0.00 | 38 | 1012.1 |
| 20260502194739 | 16 | 318 | 9.7 | 29.0 | 0.00 | 0.00 | 0.00 | 38 | 1012.1 |
| 20260502194709 | 16 | 320 | 17.7 | 29.0 | 0.00 | 0.00 | 0.00 | 36 | 1012.1 |
| 20260502194525 | 16 | 308 | 19.3 | 27.4 | 0.00 | 0.00 | 0.00 | 38 | 1012.1 |
| 20260502194426 | 16 | 311 | 9.7 | 27.4 | 0.00 | 0.00 | 0.00 | 37 | 1012.1 |
| 20260502194325 | 16 | 340 | 14.5 | 27.4 | 0.00 | 0.00 | 0.00 | 40 | 1012.3 |
| 20260502194243 | 16 | 329 | 11.3 | 27.4 | 0.00 | 0.00 | 0.00 | 40 | 1012.3 |
| 20260502194142 | 16 | 344 | 8.0 | 27.4 | 0.00 | 0.00 | 0.00 | 40 | 1012.3 |
| 20260502194040 | 16 | 332 | 8.0 | 27.4 | 0.00 | 0.00 | 0.00 | 38 | 1012.3 |
| 20260502193938 | 16 | 315 | 11.3 | 27.4 | 0.00 | 0.00 | 0.00 | 38 | 1012.3 |
| 20260502193837 | 16 | 339 | 14.5 | 27.4 | 0.00 | 0.00 | 0.00 | 37 | 1012.3 |
| 20260502193738 | 16 | 328 | 20.9 | 27.4 | 0.00 | 0.00 | 0.00 | 35 | 1012.3 |
| 20260502193636 | 16 | 357 | 16.1 | 27.4 | 0.00 | 0.00 | 0.00 | 36 | 1012.3 |
| 20260502193534 | 16 | 330 | 11.3 | 22.5 | 0.00 | 0.00 | 0.00 | 38 | 1012.3 |
| 20260502193432 | 16 | 328 | 14.5 | 22.5 | 0.00 | 0.00 | 0.00 | 38 | 1012.3 |
| 20260502193331 | 16 | 336 | 9.7 | 22.5 | 0.00 | 0.00 | 0.00 | 39 | 1012.3 |
| 20260502193241 | 16 | 326 | 8.0 | 22.5 | 0.00 | 0.00 | 0.00 | 38 | 1012.3 |
| 20260502193151 | 16 | 359 | 12.9 | 22.5 | 0.00 | 0.00 | 0.00 | 38 | 1012.3 |
| 20260502193032 | 16 | 357 | 11.3 | 22.5 | 0.00 | 0.00 | 0.00 | 38 | 1012.3 |
| 20260502192951 | 16 | 325 | 12.9 | 22.5 | 0.00 | 0.00 | 0.00 | 39 | 1012.3 |
| 20260502192830 | 16 | 332 | 6.4 | 22.5 | 0.00 | 0.00 | 0.00 | 39 | 1012.3 |
| 20260502192727 | 16 | 315 | 11.3 | 22.5 | 0.00 | 0.00 | 0.00 | 38 | 1012.3 |
| 20260502192625 | 16 | 330 | 14.5 | 22.5 | 0.00 | 0.00 | 0.00 | 37 | 1012.3 |
| 20260502192526 | 16 | 322 | 17.7 | 22.5 | 0.00 | 0.00 | 0.00 | 41 | 1012.3 |
| 20260502192424 | 16 | 312 | 11.3 | 22.5 | 0.00 | 0.00 | 0.00 | 40 | 1012.3 |
| 20260502192326 | 16 | 332 | 1.6 | 22.5 | 0.00 | 0.00 | 0.00 | 39 | 1012.3 |
| 20260502192245 | 16 | 326 | 11.3 | 27.4 | 0.00 | 0.00 | 0.00 | 38 | 1012.3 |
| 20260502192141 | 16 | 352 | 9.7 | 27.4 | 0.00 | 0.00 | 0.00 | 38 | 1012.3 |
| 20260502192100 | 16 | 349 | 11.3 | 27.4 | 0.00 | 0.00 | 0.00 | 38 | 1012.3 |
| 20260502192000 | 16 | 320 | 14.5 | 27.4 | 0.00 | 0.00 | 0.00 | 37 | 1012.3 |
| 20260502191838 | 16 | 322 | 11.3 | 30.6 | 0.00 | 0.00 | 0.00 | 37 | 1012.3 |
| 20260502191756 | 16 | 344 | 11.3 | 33.8 | 0.00 | 0.00 | 0.00 | 38 | 1012.3 |
| 20260502191725 | 16 | 325 | 12.9 | 33.8 | 0.00 | 0.00 | 0.00 | 37 | 1012.3 |
| 20260502191542 | 16 | 347 | 12.9 | 33.8 | 0.00 | 0.00 | 0.00 | 36 | 1012.3 |
| 20260502191425 | 16 | 337 | 16.1 | 33.8 | 0.00 | 0.00 | 0.00 | 35 | 1012.3 |
| 20260502191343 | 16 | 325 | 16.1 | 33.8 | 0.00 | 0.00 | 0.00 | 37 | 1012.3 |
| 20260502191242 | 16 | 326 | 14.5 | 33.8 | 0.00 | 0.00 | 0.00 | 35 | 1012.3 |
| 20260502191141 | 16 | 330 | 14.5 | 33.8 | 0.00 | 0.00 | 0.00 | 33 | 1012.3 |
| 20260502191040 | 16 | 337 | 20.9 | 33.8 | 0.00 | 0.00 | 0.00 | 36 | 1012.3 |
| 20260502190937 | 16 | 89 | 24.1 | 33.8 | 0.00 | 0.00 | 0.00 | 36 | 1012.3 |
| 20260502190836 | 16 | 339 | 16.1 | 27.4 | 0.00 | 0.00 | 0.00 | 39 | 1012.3 |
| 20260502190733 | 16 | 326 | 11.3 | 17.7 | 0.00 | 0.00 | 0.00 | 39 | 1012.3 |
| 20260502190636 | 16 | 160 | 6.4 | 17.7 | 0.00 | 0.00 | 0.00 | 35 | 1012.3 |
| 20260502190535 | 16 | 330 | 8.0 | 17.7 | 0.00 | 0.00 | 0.00 | 37 | 1012.3 |
| 20260502190434 | 16 | 335 | 11.3 | 25.7 | 0.00 | 0.00 | 0.00 | 34 | 1012.3 |
| 20260502190333 | 16 | 330 | 9.7 | 25.7 | 0.00 | 0.00 | 0.00 | 35 | 1012.3 |
| 20260502190232 | 16 | 157 | 6.4 | 29.0 | 0.00 | 0.00 | 0.00 | 34 | 1012.3 |
| 20260502190201 | 16 | 332 | 6.4 | 29.0 | 0.00 | 0.00 | 0.00 | 34 | 1012.3 |
| 20260502190037 | 16 | 352 | 11.3 | 29.0 | 0.00 | 0.00 | 0.00 | 36 | 1012.3 |
| 20260502185940 | 16 | 189 | 8.0 | 29.0 | 0.00 | 0.00 | 0.00 | 37 | 1012.3 |
| 20260502185837 | 16 | 104 | 6.4 | 29.0 | 0.00 | 0.00 | 0.00 | 36 | 1012.4 |
| 20260502185756 | 16 | 326 | 11.3 | 29.0 | 0.00 | 0.00 | 0.00 | 35 | 1012.4 |
| 20260502185632 | 16 | 335 | 17.7 | 29.0 | 0.00 | 0.00 | 0.00 | 36 | 1012.4 |
| 20260502185530 | 16 | 329 | 16.1 | 29.0 | 0.00 | 0.00 | 0.00 | 35 | 1012.4 |
| 20260502185428 | 16 | 333 | 17.7 | 29.0 | 0.00 | 0.00 | 0.00 | 38 | 1012.4 |
| 20260502185328 | 16 | 325 | 9.7 | 24.1 | 0.00 | 0.00 | 0.00 | 36 | 1012.4 |
| 20260502185229 | 16 | 326 | 16.1 | 30.6 | 0.00 | 0.00 | 0.00 | 36 | 1012.4 |
| 20260502185130 | 16 | 337 | 20.9 | 30.6 | 0.00 | 0.00 | 0.00 | 37 | 1012.4 |
| 20260502185026 | 16 | 339 | 11.3 | 30.6 | 0.00 | 0.00 | 0.00 | 37 | 1012.4 |
| 20260502184943 | 16 | 326 | 9.7 | 30.6 | 0.00 | 0.00 | 0.00 | 35 | 1012.4 |
| 20260502184838 | 16 | 328 | 6.4 | 30.6 | 0.00 | 0.00 | 0.00 | 34 | 1012.4 |
| 20260502184736 | 16 | 335 | 12.9 | 30.6 | 0.00 | 0.00 | 0.00 | 35 | 1012.4 |
| 20260502184705 | 16 | 332 | 9.7 | 30.6 | 0.00 | 0.00 | 0.00 | 38 | 1012.4 |
| 20260502184600 | 16 | 339 | 6.4 | 30.6 | 0.00 | 0.00 | 0.00 | 35 | 1012.4 |
| 20260502184438 | 16 | 357 | 16.1 | 30.6 | 0.00 | 0.00 | 0.00 | 36 | 1012.4 |
| 20260502184342 | 16 | 335 | 19.3 | 30.6 | 0.00 | 0.00 | 0.00 | 36 | 1012.4 |
| 20260502184240 | 16 | 333 | 14.5 | 29.0 | 0.00 | 0.00 | 0.00 | 37 | 1012.4 |
| 20260502184159 | 16 | 93 | 4.8 | 27.4 | 0.00 | 0.00 | 0.00 | 37 | 1012.4 |
| 20260502184036 | 16 | 332 | 8.0 | 27.4 | 0.00 | 0.00 | 0.00 | 36 | 1012.4 |
| 20260502183955 | 16 | 333 | 14.5 | 27.4 | 0.00 | 0.00 | 0.00 | 35 | 1012.4 |
| 20260502183831 | 16 | 184 | 17.7 | 27.4 | 0.00 | 0.00 | 0.00 | 35 | 1012.4 |
| 20260502183730 | 16 | 346 | 14.5 | 38.6 | 0.00 | 0.00 | 0.00 | 34 | 1012.4 |
| 20260502183630 | 16 | 340 | 16.1 | 38.6 | 0.00 | 0.00 | 0.00 | 35 | 1012.4 |
| 20260502183532 | 16 | 335 | 8.0 | 38.6 | 0.00 | 0.00 | 0.00 | 36 | 1012.4 |
| 20260502183430 | 16 | 315 | 11.3 | 38.6 | 0.00 | 0.00 | 0.00 | 36 | 1012.4 |
| 20260502183328 | 16 | 326 | 4.8 | 38.6 | 0.00 | 0.00 | 0.00 | 35 | 1012.4 |
| 20260502183238 | 16 | 353 | 17.7 | 38.6 | 0.00 | 0.00 | 0.00 | 34 | 1012.4 |
| 20260502183148 | 16 | 332 | 14.5 | 38.6 | 0.00 | 0.00 | 0.00 | 35 | 1012.4 |
| 20260502183027 | 16 | 347 | 14.5 | 38.6 | 0.00 | 0.00 | 0.00 | 35 | 1012.4 |
| 20260502182925 | 16 | 350 | 17.7 | 38.6 | 0.00 | 0.00 | 0.00 | 34 | 1012.4 |
| 20260502182826 | 16 | 326 | 16.1 | 33.8 | 0.00 | 0.00 | 0.00 | 36 | 1012.3 |
| 20260502182724 | 16 | 316 | 19.3 | 33.8 | 0.00 | 0.00 | 0.00 | 36 | 1012.3 |
| 20260502182643 | 16 | 328 | 22.5 | 33.8 | 0.00 | 0.00 | 0.00 | 36 | 1012.3 |
| 20260502182542 | 16 | 329 | 14.5 | 30.6 | 0.00 | 0.00 | 0.00 | 36 | 1012.3 |
| 20260502182442 | 16 | 323 | 11.3 | 30.6 | 0.00 | 0.00 | 0.00 | 38 | 1012.3 |
| 20260502182359 | 16 | 88 | 11.3 | 30.6 | 0.00 | 0.00 | 0.00 | 36 | 1012.3 |
| 20260502182257 | 16 | 333 | 16.1 | 30.6 | 0.00 | 0.00 | 0.00 | 35 | 1012.3 |
| 20260502182155 | 16 | 318 | 19.3 | 30.6 | 0.00 | 0.00 | 0.00 | 36 | 1012.3 |
| 20260502182036 | 16 | 323 | 11.3 | 25.7 | 0.00 | 0.00 | 0.00 | 35 | 1012.3 |
| 20260502181933 | 16 | 326 | 11.3 | 25.7 | 0.00 | 0.00 | 0.00 | 37 | 1012.3 |
| 20260502181852 | 16 | 330 | 8.0 | 25.7 | 0.00 | 0.00 | 0.00 | 38 | 1012.3 |
| 20260502181742 | 16 | 330 | 11.3 | 25.7 | 0.00 | 0.00 | 0.00 | 38 | 1012.3 |
| 20260502181651 | 16 | 328 | 8.0 | 25.7 | 0.00 | 0.00 | 0.00 | 36 | 1012.3 |
| 20260502181527 | 16 | 117 | 11.3 | 30.6 | 0.00 | 0.00 | 0.00 | 38 | 1012.3 |
| 20260502181427 | 16 | 332 | 8.0 | 30.6 | 0.00 | 0.00 | 0.00 | 34 | 1012.3 |
| 20260502181325 | 16 | 359 | 11.3 | 30.6 | 0.00 | 0.00 | 0.00 | 34 | 1012.4 |
| 20260502181227 | 16 | 51 | 11.3 | 30.6 | 0.00 | 0.00 | 0.00 | 36 | 1012.4 |
| 20260502181146 | 16 | 319 | 14.5 | 30.6 | 0.00 | 0.00 | 0.00 | 36 | 1012.4 |
| 20260502181104 | 16 | 333 | 9.7 | 30.6 | 0.00 | 0.00 | 0.00 | 35 | 1012.4 |
| 20260502181002 | 16 | 339 | 8.0 | 30.6 | 0.00 | 0.00 | 0.00 | 36 | 1012.4 |
| 20260502180859 | 16 | 306 | 12.9 | 30.6 | 0.00 | 0.00 | 0.00 | 36 | 1012.4 |
| 20260502180736 | 16 | 326 | 17.7 | 30.6 | 0.00 | 0.00 | 0.00 | 39 | 1012.4 |
| 20260502180639 | 16 | 320 | 14.5 | 27.4 | 0.00 | 0.00 | 0.00 | 36 | 1012.4 |
| 20260502180536 | 16 | 330 | 16.1 | 27.4 | 0.00 | 0.00 | 0.00 | 36 | 1012.4 |
| 20260502180439 | 16 | 356 | 16.1 | 27.4 | 0.00 | 0.00 | 0.00 | 36 | 1012.4 |
| 20260502180336 | 16 | 342 | 12.9 | 27.4 | 0.00 | 0.00 | 0.00 | 37 | 1012.4 |
| 20260502180234 | 16 | 347 | 17.7 | 27.4 | 0.00 | 0.00 | 0.00 | 37 | 1012.4 |
| 20260502180206 | 16 | 157 | 11.3 | 27.4 | 0.00 | 0.00 | 0.00 | 34 | 1012.4 |
| 20260502170437 | 15 | 332 | 11.3 | 22.5 | 0.00 | 0.00 | 0.00 | 40 | 1012.8 |
| 20260502170336 | 15 | 357 | 16.1 | 22.5 | 0.00 | 0.00 | 0.00 | 38 | 1012.8 |
| 20260502170234 | 15 | 296 | 11.3 | 20.9 | 0.00 | 0.00 | 0.00 | 37 | 1012.8 |
| 20260502170206 | 15 | 185 | 9.7 | 20.9 | 0.00 | 0.00 | 0.00 | 37 | 1012.8 |
| 20260502164328 | 15 | 164 | 12.9 | 22.5 | 0.00 | 0.00 | 0.00 | 39 | 1013.2 |
| 20260502164246 | 15 | 240 | 12.9 | 22.5 | 0.00 | 0.00 | 0.00 | 40 | 1013.2 |
| 20260502164143 | 15 | 360 | 12.9 | 22.5 | 0.00 | 0.00 | 0.00 | 40 | 1013.2 |
| 20260502164043 | 15 | 336 | 12.9 | 22.5 | 0.00 | 0.00 | 0.00 | 40 | 1013.2 |
| 20260502164001 | 15 | 330 | 14.5 | 22.5 | 0.00 | 0.00 | 0.00 | 42 | 1013.2 |
| 20260502163839 | 15 | 254 | 11.3 | 22.5 | 0.00 | 0.00 | 0.00 | 42 | 1013.2 |
| 20260502163737 | 15 | 319 | 4.8 | 22.5 | 0.00 | 0.00 | 0.00 | 43 | 1013.2 |
| 20260502163639 | 15 | 203 | 6.4 | 22.5 | 0.00 | 0.00 | 0.00 | 43 | 1013.2 |
| 20260502163558 | 15 | 328 | 11.3 | 22.5 | 0.00 | 0.00 | 0.00 | 41 | 1013.2 |
| 20260502163434 | 15 | 147 | 14.5 | 22.5 | 0.00 | 0.00 | 0.00 | 40 | 1013.2 |
| 20260502163332 | 15 | 335 | 6.4 | 22.5 | 0.00 | 0.00 | 0.00 | 40 | 1013.2 |
| 20260502163231 | 15 | 143 | 9.7 | 29.0 | 0.00 | 0.00 | 0.00 | 41 | 1013.2 |
| 20260502163200 | 15 | 298 | 11.3 | 29.0 | 0.00 | 0.00 | 0.00 | 39 | 1013.2 |
| 20260502163036 | 14 | 138 | 14.5 | 29.0 | 0.00 | 0.00 | 0.00 | 38 | 1013.2 |
| 20260502162935 | 14 | 193 | 14.5 | 29.0 | 0.00 | 0.00 | 0.00 | 41 | 1013.2 |
| 20260502162838 | 14 | 320 | 11.3 | 29.0 | 0.00 | 0.00 | 0.00 | 41 | 1013.2 |
| 20260502162736 | 14 | 333 | 12.9 | 29.0 | 0.00 | 0.00 | 0.00 | 41 | 1013.2 |
| 20260502162633 | 14 | 110 | 8.0 | 29.0 | 0.00 | 0.00 | 0.00 | 42 | 1013.2 |
| 20260502162534 | 14 | 110 | 6.4 | 29.0 | 0.00 | 0.00 | 0.00 | 41 | 1013.2 |
| 20260502162437 | 14 | 75 | 19.3 | 29.0 | 0.00 | 0.00 | 0.00 | 38 | 1013.2 |
| 20260502162355 | 14 | 253 | 17.7 | 29.0 | 0.00 | 0.00 | 0.00 | 38 | 1013.2 |
| 20260502162254 | 14 | 257 | 17.7 | 29.0 | 0.00 | 0.00 | 0.00 | 38 | 1013.2 |
| 20260502162134 | 14 | 189 | 8.0 | 29.0 | 0.00 | 0.00 | 0.00 | 43 | 1013.2 |
| 20260502162033 | 14 | 330 | 6.4 | 29.0 | 0.00 | 0.00 | 0.00 | 42 | 1013.2 |
| 20260502161932 | 14 | 359 | 6.4 | 29.0 | 0.00 | 0.00 | 0.00 | 40 | 1013.2 |
| 20260502161849 | 14 | 158 | 8.0 | 29.0 | 0.00 | 0.00 | 0.00 | 40 | 1013.2 |
| 20260502161728 | 13 | 353 | 16.1 | 29.0 | 0.00 | 0.00 | 0.00 | 41 | 1013.2 |
| 20260502161658 | 13 | 343 | 19.3 | 29.0 | 0.00 | 0.00 | 0.00 | 41 | 1013.2 |
| 20260502161535 | 13 | 330 | 9.7 | 25.7 | 0.00 | 0.00 | 0.00 | 46 | 1013.2 |
| 20260502161434 | 13 | 330 | 12.9 | 27.4 | 0.00 | 0.00 | 0.00 | 44 | 1013.2 |
| 20260502161336 | 13 | 329 | 14.5 | 27.4 | 0.00 | 0.00 | 0.00 | 45 | 1013.2 |
| 20260502161237 | 13 | 342 | 9.7 | 27.4 | 0.00 | 0.00 | 0.00 | 43 | 1013.2 |
| 20260502161156 | 13 | 332 | 14.5 | 27.4 | 0.00 | 0.00 | 0.00 | 47 | 1013.2 |
| 20260502161033 | 13 | 343 | 9.7 | 27.4 | 0.00 | 0.00 | 0.00 | 45 | 1013.2 |
| 20260502160932 | 13 | 349 | 9.7 | 27.4 | 0.00 | 0.00 | 0.00 | 45 | 1013.2 |
| 20260502160829 | 13 | 76 | 8.0 | 27.4 | 0.00 | 0.00 | 0.00 | 45 | 1013.2 |
| 20260502160728 | 13 | 340 | 14.5 | 27.4 | 0.00 | 0.00 | 0.00 | 45 | 1013.2 |
| 20260502160631 | 13 | 336 | 12.9 | 27.4 | 0.00 | 0.00 | 0.00 | 45 | 1013.2 |
| 20260502160530 | 13 | 13 | 14.5 | 27.4 | 0.00 | 0.00 | 0.00 | 47 | 1013.2 |
| 20260502160428 | 13 | 191 | 14.5 | 27.4 | 0.00 | 0.00 | 0.00 | 47 | 1013.2 |
| 20260502160326 | 13 | 44 | 17.7 | 27.4 | 0.00 | 0.00 | 0.00 | 47 | 1013.2 |
| 20260502160244 | 13 | 333 | 9.7 | 27.4 | 0.00 | 0.00 | 0.00 | 47 | 1013.2 |
| 20260502160214 | 13 | 335 | 9.7 | 27.4 | 0.00 | 0.00 | 0.00 | 47 | 1013.2 |
| 20260502152330 | 13 | 119 | 12.9 | 29.0 | 0.00 | 0.00 | 0.00 | 45 | 1012.8 |
| 20260502152229 | 13 | 154 | 9.7 | 29.0 | 0.00 | 0.00 | 0.00 | 44 | 1012.8 |
| 20260502152147 | 13 | 256 | 8.0 | 29.0 | 0.00 | 0.00 | 0.00 | 46 | 1012.8 |
| 20260502152028 | 13 | 90 | 6.4 | 29.0 | 0.00 | 0.00 | 0.00 | 47 | 1012.8 |
| 20260502151947 | 13 | 337 | 16.1 | 29.0 | 0.00 | 0.00 | 0.00 | 47 | 1012.8 |
| 20260502151829 | 13 | 120 | 16.1 | 29.0 | 0.00 | 0.00 | 0.00 | 46 | 1012.8 |
| 20260502151758 | 13 | 332 | 14.5 | 29.0 | 0.00 | 0.00 | 0.00 | 47 | 1012.8 |
| 20260502151647 | 13 | 176 | 19.3 | 29.0 | 0.00 | 0.00 | 0.00 | 45 | 1012.8 |
| 20260502151522 | 13 | 280 | 9.7 | 29.0 | 0.00 | 0.00 | 0.00 | 50 | 1012.8 |
| 20260502151443 | 13 | 330 | 8.0 | 29.0 | 0.00 | 0.00 | 0.00 | 47 | 1012.8 |
| 20260502151341 | 12 | 184 | 11.3 | 32.2 | 0.00 | 0.00 | 0.00 | 47 | 1012.7 |
| 20260502151240 | 12 | 332 | 8.0 | 32.2 | 0.00 | 0.00 | 0.00 | 46 | 1012.7 |
| 20260502151159 | 12 | 335 | 6.4 | 32.2 | 0.00 | 0.00 | 0.00 | 49 | 1012.7 |
| 20260502151040 | 12 | 30 | 6.4 | 32.2 | 0.00 | 0.00 | 0.00 | 50 | 1012.7 |
| 20260502151000 | 12 | 82 | 4.8 | 32.2 | 0.00 | 0.00 | 0.00 | 49 | 1012.7 |
| 20260502150838 | 12 | 161 | 11.3 | 32.2 | 0.00 | 0.00 | 0.00 | 50 | 1012.7 |
| 20260502150755 | 12 | 335 | 17.7 | 32.2 | 0.00 | 0.00 | 0.00 | 52 | 1012.7 |
| 20260502150633 | 12 | 337 | 6.4 | 32.2 | 0.00 | 0.00 | 0.00 | 50 | 1012.7 |
| 20260502150531 | 12 | 271 | 17.7 | 32.2 | 0.00 | 0.00 | 0.00 | 50 | 1012.7 |
| 20260502150428 | 12 | 332 | 11.3 | 22.5 | 0.00 | 0.00 | 0.00 | 52 | 1012.7 |
| 20260502150347 | 12 | 360 | 3.2 | 22.5 | 0.00 | 0.00 | 0.00 | 50 | 1012.7 |
| 20260502150309 | 12 | 347 | 12.9 | 22.5 | 0.00 | 0.00 | 0.00 | 50 | 1012.7 |
| 20260502150219 | 12 | 292 | 14.5 | 22.5 | 0.00 | 0.00 | 0.00 | 50 | 1012.7 |
| 20260502130742 | 8 | 251 | 14.5 | 27.4 | 0.00 | 0.00 | 0.00 | 69 | 1012.2 |
| 20260502130644 | 8 | 271 | 12.9 | 27.4 | 0.00 | 0.00 | 0.00 | 69 | 1012.2 |
| 20260502130602 | 8 | 239 | 12.9 | 27.4 | 0.00 | 0.00 | 0.00 | 68 | 1012.2 |
| 20260502130459 | 8 | 89 | 16.1 | 27.4 | 0.00 | 0.00 | 0.00 | 69 | 1012.2 |
| 20260502130337 | 8 | 199 | 11.3 | 20.9 | 0.00 | 0.00 | 0.00 | 70 | 1012.2 |
| 20260502130256 | 8 | 257 | 9.7 | 20.9 | 0.00 | 0.00 | 0.00 | 70 | 1012.2 |
| 20260502130226 | 8 | 209 | 12.9 | 20.9 | 0.00 | 0.00 | 0.00 | 70 | 1012.2 |
| 20260502123738 | 8 | 325 | 9.7 | 17.7 | 0.00 | 0.00 | 0.00 | 71 | 1012.0 |
| 20260502123636 | 8 | 110 | 9.7 | 16.1 | 0.00 | 0.00 | 0.00 | 71 | 1012.0 |
| 20260502123536 | 8 | 295 | 8.0 | 16.1 | 0.00 | 0.00 | 0.00 | 71 | 1012.0 |
| 20260502123438 | 8 | 272 | 9.7 | 17.7 | 0.00 | 0.00 | 0.00 | 71 | 1012.0 |
| 20260502123336 | 8 | 239 | 6.4 | 17.7 | 0.00 | 0.00 | 0.00 | 71 | 1012.0 |
| 20260502123235 | 8 | 88 | 8.0 | 17.7 | 0.00 | 0.00 | 0.00 | 71 | 1012.0 |
| 20260502123204 | 8 | 323 | 9.7 | 17.7 | 0.00 | 0.00 | 0.00 | 71 | 1012.0 |
| 20260502123041 | 8 | 258 | 6.4 | 17.7 | 0.00 | 0.00 | 0.00 | 71 | 1012.0 |
| 20260502122939 | 8 | 264 | 8.0 | 17.7 | 0.00 | 0.00 | 0.00 | 71 | 1012.0 |
| 20260502122840 | 8 | 215 | 8.0 | 17.7 | 0.00 | 0.00 | 0.00 | 71 | 1011.8 |
| 20260502122759 | 8 | 335 | 6.4 | 17.7 | 0.00 | 0.00 | 0.00 | 70 | 1011.8 |
| 20260502122640 | 8 | 75 | 11.3 | 17.7 | 0.00 | 0.00 | 0.00 | 70 | 1011.8 |
| 20260502122538 | 8 | 92 | 16.1 | 17.7 | 0.00 | 0.00 | 0.00 | 71 | 1011.8 |
| 20260502122457 | 8 | 134 | 11.3 | 17.7 | 0.00 | 0.00 | 0.00 | 71 | 1011.8 |
| 20260502122353 | 8 | 96 | 6.4 | 16.1 | 0.00 | 0.00 | 0.00 | 71 | 1011.8 |
| 20260502122231 | 8 | 147 | 6.4 | 16.1 | 0.00 | 0.00 | 0.00 | 71 | 1011.8 |
| 20260502122129 | 8 | 332 | 4.8 | 16.1 | 0.00 | 0.00 | 0.00 | 72 | 1011.8 |
| 20260502122048 | 8 | 192 | 1.6 | 16.1 | 0.00 | 0.00 | 0.00 | 72 | 1011.8 |
| 20260502121945 | 8 | 329 | 4.8 | 16.1 | 0.00 | 0.00 | 0.00 | 72 | 1011.8 |
| 20260502121902 | 8 | 342 | 6.4 | 16.1 | 0.00 | 0.00 | 0.00 | 72 | 1011.8 |
| 20260502121724 | 8 | 330 | 8.0 | 16.1 | 0.00 | 0.00 | 0.00 | 72 | 1011.8 |
| 20260502121654 | 8 | 182 | 9.7 | 16.1 | 0.00 | 0.00 | 0.00 | 72 | 1011.8 |
| 20260502121531 | 8 | 258 | 4.8 | 20.9 | 0.00 | 0.00 | 0.00 | 72 | 1011.8 |
| 20260502121448 | 8 | 328 | 4.8 | 20.9 | 0.00 | 0.00 | 0.00 | 72 | 1011.8 |
| 20260502121347 | 8 | 335 | 4.8 | 20.9 | 0.00 | 0.00 | 0.00 | 71 | 1011.5 |
| 20260502121304 | 8 | 256 | 3.2 | 20.9 | 0.00 | 0.00 | 0.00 | 71 | 1011.5 |
| 20260502121142 | 8 | 110 | 4.8 | 20.9 | 0.00 | 0.00 | 0.00 | 71 | 1011.5 |
| 20260502121040 | 8 | 330 | 8.0 | 20.9 | 0.00 | 0.00 | 0.00 | 70 | 1011.5 |
| 20260502120943 | 8 | 119 | 8.0 | 20.9 | 0.00 | 0.00 | 0.00 | 71 | 1011.5 |
| 20260502120901 | 8 | 172 | 6.4 | 20.9 | 0.00 | 0.00 | 0.00 | 70 | 1011.5 |
| 20260502120738 | 8 | 210 | 11.3 | 20.9 | 0.00 | 0.00 | 0.00 | 70 | 1011.5 |
| 20260502120636 | 8 | 274 | 6.4 | 16.1 | 0.00 | 0.00 | 0.00 | 70 | 1011.5 |
| 20260502120535 | 8 | 316 | 8.0 | 16.1 | 0.00 | 0.00 | 0.00 | 71 | 1011.5 |
| 20260502120432 | 8 | 328 | 8.0 | 16.1 | 0.00 | 0.00 | 0.00 | 71 | 1011.5 |
| 20260502120352 | 8 | 123 | 12.9 | 16.1 | 0.00 | 0.00 | 0.00 | 71 | 1011.5 |
| 20260502120240 | 8 | 191 | 11.3 | 14.5 | 0.00 | 0.00 | 0.00 | 71 | 1011.5 |
| 20260502120153 | 8 | 319 | 4.8 | 14.5 | 0.00 | 0.00 | 0.00 | 71 | 1011.5 |
| 20260502115929 | 8 | 227 | 6.4 | 14.5 | 0.00 | 0.00 | 0.00 | 71 | 1011.5 |
| 20260502115828 | 8 | 330 | 8.0 | 14.5 | 0.00 | 0.00 | 0.00 | 71 | 1011.5 |
| 20260502115745 | 8 | 328 | 6.4 | 16.1 | 0.00 | 0.00 | 0.00 | 71 | 1011.5 |
| 20260502115643 | 8 | 172 | 6.4 | 16.1 | 0.00 | 0.00 | 0.00 | 71 | 1011.5 |
| 20260502115601 | 8 | 186 | 6.4 | 16.1 | 0.00 | 0.00 | 0.00 | 70 | 1011.5 |
| 20260502115458 | 8 | 332 | 6.4 | 16.1 | 0.00 | 0.00 | 0.00 | 70 | 1011.5 |
| 20260502115335 | 8 | 289 | 6.4 | 16.1 | 0.00 | 0.00 | 0.00 | 70 | 1011.5 |
| 20260502115236 | 8 | 75 | 4.8 | 16.1 | 0.00 | 0.00 | 0.00 | 71 | 1011.5 |
| 20260502115135 | 8 | 116 | 4.8 | 17.7 | 0.00 | 0.00 | 0.00 | 70 | 1011.5 |
| 20260502115033 | 8 | 192 | 8.0 | 17.7 | 0.00 | 0.00 | 0.00 | 70 | 1011.5 |
| 20260502114931 | 8 | 90 | 8.0 | 17.7 | 0.00 | 0.00 | 0.00 | 70 | 1011.5 |
| 20260502114832 | 8 | 353 | 3.2 | 17.7 | 0.00 | 0.00 | 0.00 | 70 | 1011.5 |
| 20260502114749 | 8 | 239 | 4.8 | 17.7 | 0.00 | 0.00 | 0.00 | 70 | 1011.5 |
| 20260502114657 | 8 | 202 | 4.8 | 17.7 | 0.00 | 0.00 | 0.00 | 70 | 1011.5 |
| 20260502114539 | 8 | 215 | 4.8 | 17.7 | 0.00 | 0.00 | 0.00 | 69 | 1011.5 |
| 20260502114457 | 8 | 127 | 8.0 | 17.7 | 0.00 | 0.00 | 0.00 | 69 | 1011.5 |
| 20260502114335 | 8 | 330 | 11.3 | 17.7 | 0.00 | 0.00 | 0.00 | 70 | 1011.4 |
| 20260502114234 | 8 | 329 | 6.4 | 16.1 | 0.00 | 0.00 | 0.00 | 69 | 1011.4 |
| 20260502114133 | 8 | 157 | 6.4 | 16.1 | 0.00 | 0.00 | 0.00 | 69 | 1011.4 |
| 20260502114031 | 8 | 209 | 3.2 | 16.1 | 0.00 | 0.00 | 0.00 | 69 | 1011.4 |
| 20260502113928 | 8 | 61 | 9.7 | 16.1 | 0.00 | 0.00 | 0.00 | 69 | 1011.4 |
| 20260502113847 | 8 | 172 | 9.7 | 16.1 | 0.00 | 0.00 | 0.00 | 69 | 1011.4 |
| 20260502113728 | 8 | 292 | 4.8 | 16.1 | 0.00 | 0.00 | 0.00 | 69 | 1011.4 |
| 20260502113631 | 8 | 234 | 6.4 | 16.1 | 0.00 | 0.00 | 0.00 | 69 | 1011.4 |
| 20260502113528 | 8 | 73 | 9.7 | 16.1 | 0.00 | 0.00 | 0.00 | 69 | 1011.4 |
| 20260502113446 | 8 | 184 | 9.7 | 16.1 | 0.00 | 0.00 | 0.00 | 68 | 1011.4 |
| 20260502113404 | 8 | 328 | 8.0 | 12.9 | 0.00 | 0.00 | 0.00 | 68 | 1011.4 |
| 20260502113242 | 8 | 294 | 8.0 | 12.9 | 0.00 | 0.00 | 0.00 | 68 | 1011.4 |
| 20260502113151 | 8 | 133 | 6.4 | 12.9 | 0.00 | 0.00 | 0.00 | 68 | 1011.4 |
| 20260502113028 | 8 | 330 | 6.4 | 12.9 | 0.00 | 0.00 | 0.00 | 68 | 1011.4 |
| 20260502112931 | 8 | 123 | 4.8 | 12.9 | 0.00 | 0.00 | 0.00 | 68 | 1011.4 |
| 20260502112830 | 8 | 199 | 8.0 | 12.9 | 0.00 | 0.00 | 0.00 | 68 | 1011.3 |
| 20260502112728 | 8 | 323 | 4.8 | 12.9 | 0.00 | 0.00 | 0.00 | 68 | 1011.3 |
| 20260502112626 | 8 | 308 | 8.0 | 12.9 | 0.00 | 0.00 | 0.00 | 68 | 1011.3 |
| 20260502112543 | 8 | 295 | 8.0 | 12.9 | 0.00 | 0.00 | 0.00 | 68 | 1011.3 |
| 20260502112441 | 8 | 109 | 8.0 | 12.9 | 0.00 | 0.00 | 0.00 | 68 | 1011.3 |
| 20260502112400 | 8 | 144 | 9.7 | 12.9 | 0.00 | 0.00 | 0.00 | 68 | 1011.3 |
| 20260502112237 | 8 | 333 | 8.0 | 12.9 | 0.00 | 0.00 | 0.00 | 68 | 1011.3 |
| 20260502112141 | 8 | 244 | 6.4 | 12.9 | 0.00 | 0.00 | 0.00 | 68 | 1011.3 |
| 20260502112036 | 8 | 241 | 8.0 | 12.9 | 0.00 | 0.00 | 0.00 | 68 | 1011.3 |
| 20260502111935 | 8 | 267 | 1.6 | 11.3 | 0.00 | 0.00 | 0.00 | 69 | 1011.3 |
| 20260502111833 | 8 | 311 | 6.4 | 11.3 | 0.00 | 0.00 | 0.00 | 69 | 1011.3 |
| 20260502111753 | 8 | 281 | 4.8 | 11.3 | 0.00 | 0.00 | 0.00 | 68 | 1011.3 |
| 20260502111722 | 8 | 130 | 3.2 | 11.3 | 0.00 | 0.00 | 0.00 | 68 | 1011.3 |
| 20260502111538 | 8 | 114 | 1.6 | 11.3 | 0.00 | 0.00 | 0.00 | 68 | 1011.3 |
| 20260502111437 | 8 | 42 | 1.6 | 11.3 | 0.00 | 0.00 | 0.00 | 68 | 1011.3 |
| 20260502111341 | 8 | 133 | 4.8 | 11.3 | 0.00 | 0.00 | 0.00 | 67 | 1010.9 |
| 20260502111239 | 8 | 330 | 4.8 | 11.3 | 0.00 | 0.00 | 0.00 | 67 | 1010.9 |
| 20260502111138 | 8 | 158 | 8.0 | 11.3 | 0.00 | 0.00 | 0.00 | 67 | 1010.9 |
| 20260502111037 | 8 | 191 | 6.4 | 11.3 | 0.00 | 0.00 | 0.00 | 68 | 1010.9 |
| 20260502110956 | 8 | 325 | 8.0 | 11.3 | 0.00 | 0.00 | 0.00 | 68 | 1010.9 |
| 20260502110833 | 8 | 230 | 4.8 | 11.3 | 0.00 | 0.00 | 0.00 | 67 | 1010.9 |
| 20260502110731 | 8 | 309 | 8.0 | 11.3 | 0.00 | 0.00 | 0.00 | 67 | 1010.9 |
| 20260502110633 | 8 | 254 | 3.2 | 11.3 | 0.00 | 0.00 | 0.00 | 67 | 1010.9 |
| 20260502110532 | 8 | 325 | 4.8 | 11.3 | 0.00 | 0.00 | 0.00 | 67 | 1010.9 |
| 20260502110429 | 8 | 301 | 8.0 | 11.3 | 0.00 | 0.00 | 0.00 | 66 | 1010.9 |
| 20260502110349 | 8 | 86 | 1.6 | 11.3 | 0.00 | 0.00 | 0.00 | 66 | 1010.9 |
| 20260502110246 | 8 | 191 | 4.8 | 11.3 | 0.00 | 0.00 | 0.00 | 66 | 1010.9 |
| 20260502110218 | 8 | 208 | 8.0 | 11.3 | 0.00 | 0.00 | 0.00 | 66 | 1010.9 |
| 20260502110054 | 8 | 100 | 8.0 | 11.3 | 0.00 | 0.00 | 0.00 | 66 | 1010.9 |
| 20260502105931 | 8 | 299 | 8.0 | 11.3 | 0.00 | 0.00 | 0.00 | 66 | 1010.9 |
| 20260502105851 | 8 | 79 | 3.2 | 11.3 | 0.00 | 0.00 | 0.00 | 66 | 1010.6 |
| 20260502105753 | 8 | 329 | 6.4 | 11.3 | 0.00 | 0.00 | 0.00 | 65 | 1010.6 |
| 20260502105630 | 8 | 299 | 9.7 | 11.3 | 0.00 | 0.00 | 0.00 | 65 | 1010.6 |
| 20260502105528 | 8 | 333 | 8.0 | 11.3 | 0.00 | 0.00 | 0.00 | 65 | 1010.6 |
| 20260502105426 | 8 | 315 | 1.6 | 11.3 | 0.00 | 0.00 | 0.00 | 65 | 1010.6 |
| 20260502105324 | 8 | 126 | 4.8 | 11.3 | 0.00 | 0.00 | 0.00 | 65 | 1010.6 |
| 20260502105243 | 8 | 244 | 6.4 | 12.9 | 0.00 | 0.00 | 0.00 | 65 | 1010.6 |
| 20260502105141 | 8 | 248 | 3.2 | 12.9 | 0.00 | 0.00 | 0.00 | 66 | 1010.6 |
| 20260502105043 | 8 | 304 | 3.2 | 20.9 | 0.00 | 0.00 | 0.00 | 65 | 1010.6 |
| 20260502104942 | 8 | 308 | 6.4 | 20.9 | 0.00 | 0.00 | 0.00 | 65 | 1010.6 |
| 20260502104840 | 8 | 349 | 8.0 | 20.9 | 0.00 | 0.00 | 0.00 | 65 | 1010.6 |
| 20260502104739 | 8 | 318 | 6.4 | 20.9 | 0.00 | 0.00 | 0.00 | 65 | 1010.6 |
| 20260502104709 | 8 | 131 | 4.8 | 20.9 | 0.00 | 0.00 | 0.00 | 65 | 1010.6 |
| 20260502104524 | 8 | 137 | 6.4 | 20.9 | 0.00 | 0.00 | 0.00 | 65 | 1010.6 |
| 20260502104443 | 8 | 174 | 8.0 | 20.9 | 0.00 | 0.00 | 0.00 | 65 | 1010.6 |
| 20260502104340 | 8 | 299 | 9.7 | 20.9 | 0.00 | 0.00 | 0.00 | 65 | 1010.6 |
| 20260502104300 | 8 | 95 | 11.3 | 20.9 | 0.00 | 0.00 | 0.00 | 64 | 1010.6 |
| 20260502104137 | 8 | 234 | 16.1 | 20.9 | 0.00 | 0.00 | 0.00 | 65 | 1010.6 |
| 20260502104054 | 8 | 332 | 11.3 | 20.9 | 0.00 | 0.00 | 0.00 | 65 | 1010.6 |
| 20260502103935 | 8 | 254 | 11.3 | 20.9 | 0.00 | 0.00 | 0.00 | 65 | 1010.6 |
| 20260502103833 | 8 | 152 | 14.5 | 20.9 | 0.00 | 0.00 | 0.00 | 65 | 1010.6 |
| 20260502103731 | 8 | 244 | 16.1 | 20.9 | 0.00 | 0.00 | 0.00 | 65 | 1010.6 |
| 20260502103630 | 8 | 138 | 11.3 | 19.3 | 0.00 | 0.00 | 0.00 | 65 | 1010.6 |
| 20260502103533 | 8 | 278 | 6.4 | 19.3 | 0.00 | 0.00 | 0.00 | 65 | 1010.6 |
| 20260502103431 | 8 | 325 | 9.7 | 19.3 | 0.00 | 0.00 | 0.00 | 65 | 1010.6 |
| 20260502103330 | 8 | 113 | 8.0 | 19.3 | 0.00 | 0.00 | 0.00 | 65 | 1010.6 |
| 20260502103239 | 8 | 280 | 12.9 | 19.3 | 0.00 | 0.00 | 0.00 | 65 | 1010.6 |
| 20260502103151 | 8 | 296 | 11.3 | 19.3 | 0.00 | 0.00 | 0.00 | 65 | 1010.6 |
| 20260502103027 | 8 | 296 | 12.9 | 19.3 | 0.00 | 0.00 | 0.00 | 66 | 1010.6 |
| 20260502102945 | 8 | 137 | 11.3 | 19.3 | 0.00 | 0.00 | 0.00 | 65 | 1010.6 |
| 20260502102842 | 8 | 270 | 9.7 | 19.3 | 0.00 | 0.00 | 0.00 | 65 | 1010.6 |
| 20260502102741 | 8 | 278 | 9.7 | 19.3 | 0.00 | 0.00 | 0.00 | 65 | 1010.6 |
| 20260502102703 | 8 | 296 | 9.7 | 19.3 | 0.00 | 0.00 | 0.00 | 65 | 1010.6 |
| 20260502102541 | 8 | 192 | 9.7 | 19.3 | 0.00 | 0.00 | 0.00 | 63 | 1010.6 |
| 20260502102459 | 8 | 309 | 9.7 | 19.3 | 0.00 | 0.00 | 0.00 | 63 | 1010.6 |
| 20260502102337 | 8 | 332 | 9.7 | 19.3 | 0.00 | 0.00 | 0.00 | 63 | 1010.6 |
| 20260502102236 | 8 | 202 | 11.3 | 19.3 | 0.00 | 0.00 | 0.00 | 63 | 1010.6 |
| 20260502102133 | 8 | 52 | 14.5 | 25.7 | 0.00 | 0.00 | 0.00 | 63 | 1010.6 |
| 20260502102032 | 8 | 333 | 8.0 | 25.7 | 0.00 | 0.00 | 0.00 | 64 | 1010.6 |
| 20260502101935 | 8 | 305 | 9.7 | 25.7 | 0.00 | 0.00 | 0.00 | 64 | 1010.6 |
| 20260502101834 | 8 | 147 | 8.0 | 25.7 | 0.00 | 0.00 | 0.00 | 64 | 1010.6 |
| 20260502101754 | 8 | 158 | 6.4 | 25.7 | 0.00 | 0.00 | 0.00 | 64 | 1010.6 |
| 20260502101540 | 8 | 267 | 12.9 | 25.7 | 0.00 | 0.00 | 0.00 | 62 | 1010.6 |
| 20260502101438 | 8 | 277 | 12.9 | 25.7 | 0.00 | 0.00 | 0.00 | 63 | 1010.6 |
| 20260502101336 | 8 | 236 | 14.5 | 25.7 | 0.00 | 0.00 | 0.00 | 64 | 1010.1 |
| 20260502101235 | 8 | 318 | 6.4 | 20.9 | 0.00 | 0.00 | 0.00 | 64 | 1010.1 |
| 20260502101154 | 8 | 158 | 6.4 | 20.9 | 0.00 | 0.00 | 0.00 | 62 | 1010.1 |
| 20260502101034 | 8 | 340 | 14.5 | 20.9 | 0.00 | 0.00 | 0.00 | 63 | 1010.1 |
| 20260502100954 | 8 | 72 | 11.3 | 20.9 | 0.00 | 0.00 | 0.00 | 62 | 1010.1 |
| 20260502100853 | 8 | 234 | 11.3 | 20.9 | 0.00 | 0.00 | 0.00 | 62 | 1010.1 |
| 20260502100730 | 8 | 275 | 12.9 | 20.9 | 0.00 | 0.00 | 0.00 | 62 | 1010.1 |
| 20260502100631 | 8 | 284 | 12.9 | 19.3 | 0.00 | 0.00 | 0.00 | 63 | 1010.1 |
| 20260502100529 | 8 | 222 | 11.3 | 22.5 | 0.00 | 0.00 | 0.00 | 62 | 1010.1 |
| 20260502100448 | 9 | 205 | 16.1 | 25.7 | 0.00 | 0.00 | 0.00 | 63 | 1010.1 |
| 20260502100326 | 9 | 295 | 3.2 | 25.7 | 0.00 | 0.00 | 0.00 | 62 | 1010.1 |
| 20260502100245 | 9 | 198 | 9.7 | 25.7 | 0.00 | 0.00 | 0.00 | 62 | 1010.1 |
| 20260502100218 | 9 | 264 | 6.4 | 25.7 | 0.00 | 0.00 | 0.00 | 63 | 1010.1 |
| 20260502091438 | 9 | 202 | 20.9 | 25.7 | 0.00 | 0.00 | 0.00 | 61 | 1010.4 |
| 20260502091339 | 9 | 264 | 14.5 | 25.7 | 0.00 | 0.00 | 0.00 | 60 | 1010.5 |
| 20260502091242 | 9 | 329 | 16.1 | 27.4 | 0.00 | 0.00 | 0.00 | 60 | 1010.5 |
| 20260502091142 | 9 | 294 | 12.9 | 27.4 | 0.00 | 0.00 | 0.00 | 60 | 1010.5 |
| 20260502091100 | 9 | 85 | 16.1 | 27.4 | 0.00 | 0.00 | 0.00 | 59 | 1010.5 |
| 20260502090939 | 9 | 336 | 19.3 | 27.4 | 0.00 | 0.00 | 0.00 | 59 | 1010.5 |
| 20260502090837 | 9 | 171 | 19.3 | 27.4 | 0.00 | 0.00 | 0.00 | 60 | 1010.5 |
| 20260502090735 | 9 | 318 | 17.7 | 27.4 | 0.00 | 0.00 | 0.00 | 60 | 1010.5 |
| 20260502090633 | 9 | 260 | 12.9 | 27.4 | 0.00 | 0.00 | 0.00 | 61 | 1010.5 |
| 20260502090535 | 9 | 261 | 9.7 | 27.4 | 0.00 | 0.00 | 0.00 | 60 | 1010.5 |
| 20260502090434 | 9 | 217 | 14.5 | 27.4 | 0.00 | 0.00 | 0.00 | 59 | 1010.5 |
| 20260502090331 | 9 | 329 | 19.3 | 27.4 | 0.00 | 0.00 | 0.00 | 59 | 1010.5 |
| 20260502090242 | 9 | 215 | 17.7 | 27.4 | 0.00 | 0.00 | 0.00 | 58 | 1010.5 |
| 20260502090151 | 9 | 237 | 16.1 | 27.4 | 0.00 | 0.00 | 0.00 | 59 | 1010.5 |
| 20260502071444 | 10 | 329 | 12.9 | 30.6 | 0.00 | 0.00 | 0.00 | 56 | 1010.6 |
| 20260502071341 | 10 | 304 | 11.3 | 30.6 | 0.00 | 0.00 | 0.00 | 57 | 1011.4 |
| 20260502071238 | 10 | 285 | 14.5 | 30.6 | 0.00 | 0.00 | 0.00 | 56 | 1011.4 |
| 20260502071141 | 10 | 199 | 20.9 | 30.6 | 0.00 | 0.00 | 0.00 | 56 | 1011.4 |
| 20260502071040 | 10 | 299 | 14.5 | 27.4 | 0.00 | 0.00 | 0.00 | 56 | 1011.4 |
| 20260502070939 | 10 | 329 | 12.9 | 27.4 | 0.00 | 0.00 | 0.00 | 56 | 1011.4 |
| 20260502070837 | 10 | 220 | 12.9 | 27.4 | 0.00 | 0.00 | 0.00 | 56 | 1011.4 |
| 20260502070735 | 10 | 200 | 14.5 | 27.4 | 0.00 | 0.00 | 0.00 | 56 | 1011.4 |
| 20260502070633 | 10 | 305 | 14.5 | 30.6 | 0.00 | 0.00 | 0.00 | 55 | 1011.4 |
| 20260502070552 | 10 | 186 | 17.7 | 30.6 | 0.00 | 0.00 | 0.00 | 54 | 1011.4 |
| 20260502070432 | 10 | 328 | 20.9 | 30.6 | 0.00 | 0.00 | 0.00 | 54 | 1011.4 |
| 20260502070331 | 10 | 155 | 17.7 | 30.6 | 0.00 | 0.00 | 0.00 | 54 | 1011.4 |
| 20260502070250 | 10 | 237 | 16.1 | 30.6 | 0.00 | 0.00 | 0.00 | 54 | 1011.4 |
| 20260502070200 | 10 | 289 | 14.5 | 30.6 | 0.00 | 0.00 | 0.00 | 55 | 1011.4 |
| 20260502070040 | 10 | 319 | 16.1 | 30.6 | 0.00 | 0.00 | 0.00 | 55 | 1011.4 |
| 20260502065938 | 10 | 319 | 16.1 | 30.6 | 0.00 | 0.00 | 0.00 | 55 | 1011.4 |
| 20260502065837 | 10 | 227 | 19.3 | 30.6 | 0.00 | 0.00 | 0.00 | 55 | 1011.3 |
| 20260502065739 | 10 | 284 | 17.7 | 27.4 | 0.00 | 0.00 | 0.00 | 55 | 1011.3 |
| 20260502065656 | 10 | 301 | 17.7 | 27.4 | 0.00 | 0.00 | 0.00 | 54 | 1011.3 |
| 20260502065533 | 10 | 219 | 14.5 | 27.4 | 0.00 | 0.00 | 0.00 | 54 | 1011.3 |
| 20260502065431 | 10 | 311 | 11.3 | 27.4 | 0.00 | 0.00 | 0.00 | 55 | 1011.3 |
| 20260502065329 | 10 | 174 | 8.0 | 27.4 | 0.00 | 0.00 | 0.00 | 54 | 1011.3 |
| 20260502065228 | 10 | 332 | 19.3 | 27.4 | 0.00 | 0.00 | 0.00 | 54 | 1011.3 |
| 20260502065150 | 10 | 73 | 19.3 | 27.4 | 0.00 | 0.00 | 0.00 | 53 | 1011.3 |
| 20260502065047 | 10 | 315 | 17.7 | 30.6 | 0.00 | 0.00 | 0.00 | 54 | 1011.3 |
| 20260502064929 | 10 | 305 | 14.5 | 30.6 | 0.00 | 0.00 | 0.00 | 53 | 1011.3 |
| 20260502064826 | 10 | 209 | 14.5 | 30.6 | 0.00 | 0.00 | 0.00 | 54 | 1011.3 |
| 20260502064735 | 10 | 128 | 17.7 | 30.6 | 0.00 | 0.00 | 0.00 | 53 | 1011.3 |
| 20260502064645 | 10 | 308 | 16.1 | 30.6 | 0.00 | 0.00 | 0.00 | 54 | 1011.3 |
| 20260502064542 | 10 | 168 | 17.7 | 30.6 | 0.00 | 0.00 | 0.00 | 54 | 1011.3 |
| 20260502064441 | 10 | 339 | 16.1 | 30.6 | 0.00 | 0.00 | 0.00 | 55 | 1011.3 |
| 20260502064338 | 10 | 54 | 8.0 | 30.6 | 0.00 | 0.00 | 0.00 | 54 | 1011.4 |
| 20260502064235 | 10 | 308 | 19.3 | 30.6 | 0.00 | 0.00 | 0.00 | 55 | 1011.4 |
| 20260502064140 | 10 | 309 | 16.1 | 30.6 | 0.00 | 0.00 | 0.00 | 55 | 1011.4 |
| 20260502064039 | 10 | 309 | 16.1 | 30.6 | 0.00 | 0.00 | 0.00 | 55 | 1011.4 |
| 20260502063937 | 10 | 282 | 17.7 | 29.0 | 0.00 | 0.00 | 0.00 | 55 | 1011.4 |
| 20260502063834 | 10 | 292 | 12.9 | 30.6 | 0.00 | 0.00 | 0.00 | 54 | 1011.4 |
| 20260502063734 | 10 | 332 | 12.9 | 30.6 | 0.00 | 0.00 | 0.00 | 53 | 1011.4 |
| 20260502063652 | 10 | 330 | 20.9 | 30.6 | 0.00 | 0.00 | 0.00 | 54 | 1011.4 |
| 20260502063530 | 10 | 253 | 19.3 | 30.6 | 0.00 | 0.00 | 0.00 | 54 | 1011.4 |
| 20260502063432 | 10 | 200 | 19.3 | 30.6 | 0.00 | 0.00 | 0.00 | 53 | 1011.4 |
| 20260502063349 | 10 | 313 | 12.9 | 30.6 | 0.00 | 0.00 | 0.00 | 54 | 1011.4 |
| 20260502063228 | 10 | 184 | 16.1 | 30.6 | 0.00 | 0.00 | 0.00 | 53 | 1011.4 |
| 20260502063158 | 10 | 289 | 14.5 | 30.6 | 0.00 | 0.00 | 0.00 | 52 | 1011.4 |
| 20260502063035 | 10 | 247 | 19.3 | 30.6 | 0.00 | 0.00 | 0.00 | 52 | 1011.4 |
| 20260502062932 | 10 | 271 | 17.7 | 30.6 | 0.00 | 0.00 | 0.00 | 52 | 1011.4 |
| 20260502062830 | 10 | 209 | 14.5 | 27.4 | 0.00 | 0.00 | 0.00 | 52 | 1011.6 |
| 20260502062734 | 10 | 328 | 16.1 | 27.4 | 0.00 | 0.00 | 0.00 | 53 | 1011.6 |
| 20260502062633 | 10 | 243 | 16.1 | 32.2 | 0.00 | 0.00 | 0.00 | 53 | 1011.6 |
| 20260502062530 | 10 | 246 | 19.3 | 32.2 | 0.00 | 0.00 | 0.00 | 53 | 1011.6 |
| 20260502062448 | 10 | 274 | 12.9 | 32.2 | 0.00 | 0.00 | 0.00 | 53 | 1011.6 |
| 20260502062328 | 10 | 250 | 14.5 | 32.2 | 0.00 | 0.00 | 0.00 | 52 | 1011.6 |
| 20260502062225 | 10 | 330 | 17.7 | 32.2 | 0.00 | 0.00 | 0.00 | 52 | 1011.6 |
| 20260502062146 | 10 | 127 | 19.3 | 32.2 | 0.00 | 0.00 | 0.00 | 52 | 1011.6 |
| 20260502062104 | 10 | 359 | 20.9 | 32.2 | 0.00 | 0.00 | 0.00 | 51 | 1011.6 |
| 20260502061940 | 11 | 143 | 20.9 | 32.2 | 0.00 | 0.00 | 0.00 | 51 | 1011.6 |
| 20260502061858 | 11 | 232 | 22.5 | 32.2 | 0.00 | 0.00 | 0.00 | 51 | 1011.6 |
| 20260502061739 | 11 | 265 | 25.7 | 32.2 | 0.00 | 0.00 | 0.00 | 52 | 1011.6 |
| 20260502061710 | 11 | 246 | 20.9 | 30.6 | 0.00 | 0.00 | 0.00 | 52 | 1011.6 |
| 20260502061526 | 11 | 181 | 14.5 | 29.0 | 0.00 | 0.00 | 0.00 | 51 | 1011.6 |
| 20260502061423 | 11 | 330 | 14.5 | 29.0 | 0.00 | 0.00 | 0.00 | 51 | 1011.6 |
| 20260502061326 | 11 | 199 | 20.9 | 29.0 | 0.00 | 0.00 | 0.00 | 51 | 1011.4 |
| 20260502061243 | 11 | 167 | 12.9 | 27.4 | 0.00 | 0.00 | 0.00 | 52 | 1011.4 |
| 20260502061202 | 11 | 73 | 11.3 | 27.4 | 0.00 | 0.00 | 0.00 | 52 | 1011.4 |
| 20260502061042 | 11 | 136 | 12.9 | 27.4 | 0.00 | 0.00 | 0.00 | 50 | 1011.4 |
| 20260502060943 | 11 | 270 | 12.9 | 30.6 | 0.00 | 0.00 | 0.00 | 52 | 1011.4 |
| 20260502060842 | 11 | 175 | 17.7 | 30.6 | 0.00 | 0.00 | 0.00 | 50 | 1011.4 |
| 20260502060740 | 11 | 244 | 20.9 | 30.6 | 0.00 | 0.00 | 0.00 | 51 | 1011.4 |
| 20260502060639 | 11 | 287 | 14.5 | 32.2 | 0.00 | 0.00 | 0.00 | 51 | 1011.4 |
| 20260502060537 | 11 | 329 | 16.1 | 32.2 | 0.00 | 0.00 | 0.00 | 52 | 1011.4 |
| 20260502060456 | 11 | 232 | 19.3 | 32.2 | 0.00 | 0.00 | 0.00 | 51 | 1011.4 |
| 20260502060333 | 11 | 270 | 19.3 | 32.2 | 0.00 | 0.00 | 0.00 | 50 | 1011.4 |
| 20260502060304 | 11 | 109 | 19.3 | 32.2 | 0.00 | 0.00 | 0.00 | 50 | 1011.4 |
| 20260502060156 | 11 | 289 | 20.9 | 32.2 | 0.00 | 0.00 | 0.00 | 50 | 1011.4 |
| 20260502060036 | 11 | 224 | 12.9 | 32.2 | 0.00 | 0.00 | 0.00 | 50 | 1011.4 |
| 20260502055934 | 11 | 253 | 12.9 | 32.2 | 0.00 | 0.00 | 0.00 | 50 | 1011.4 |
| 20260502055851 | 11 | 244 | 14.5 | 32.2 | 0.00 | 0.00 | 0.00 | 50 | 1011.2 |
| 20260502055729 | 11 | 330 | 19.3 | 32.2 | 0.00 | 0.00 | 0.00 | 50 | 1011.2 |
| 20260502055628 | 11 | 301 | 11.3 | 29.0 | 0.00 | 0.00 | 0.00 | 50 | 1011.2 |
| 20260502055547 | 11 | 333 | 16.1 | 29.0 | 0.00 | 0.00 | 0.00 | 49 | 1011.2 |
| 20260502055447 | 11 | 274 | 19.3 | 29.0 | 0.00 | 0.00 | 0.00 | 49 | 1011.2 |
| 20260502055328 | 11 | 234 | 20.9 | 29.0 | 0.00 | 0.00 | 0.00 | 50 | 1011.2 |
| 20260502055227 | 11 | 312 | 16.1 | 29.0 | 0.00 | 0.00 | 0.00 | 51 | 1011.2 |
| 20260502055127 | 11 | 178 | 17.7 | 29.0 | 0.00 | 0.00 | 0.00 | 50 | 1011.2 |
| 20260502055025 | 11 | 216 | 17.7 | 29.0 | 0.00 | 0.00 | 0.00 | 50 | 1011.2 |
| 20260502054924 | 11 | 49 | 16.1 | 29.0 | 0.00 | 0.00 | 0.00 | 51 | 1011.2 |
| 20260502054823 | 11 | 185 | 11.3 | 35.4 | 0.00 | 0.00 | 0.00 | 51 | 1011.2 |
| 20260502054735 | 11 | 165 | 8.0 | 35.4 | 0.00 | 0.00 | 0.00 | 51 | 1011.2 |
| 20260502054645 | 11 | 274 | 19.3 | 35.4 | 0.00 | 0.00 | 0.00 | 50 | 1011.2 |
| 20260502054526 | 11 | 319 | 17.7 | 35.4 | 0.00 | 0.00 | 0.00 | 50 | 1011.2 |
| 20260502054444 | 11 | 298 | 14.5 | 35.4 | 0.00 | 0.00 | 0.00 | 50 | 1011.2 |
| 20260502054342 | 11 | 313 | 19.3 | 35.4 | 0.00 | 0.00 | 0.00 | 50 | 1011.1 |
| 20260502054242 | 11 | 243 | 17.7 | 35.4 | 0.00 | 0.00 | 0.00 | 50 | 1011.1 |
| 20260502054200 | 11 | 320 | 14.5 | 35.4 | 0.00 | 0.00 | 0.00 | 51 | 1011.1 |
| 20260502054038 | 11 | 229 | 19.3 | 35.4 | 0.00 | 0.00 | 0.00 | 50 | 1011.1 |
| 20260502053936 | 11 | 281 | 16.1 | 35.4 | 0.00 | 0.00 | 0.00 | 50 | 1011.1 |
| 20260502053837 | 11 | 319 | 16.1 | 35.4 | 0.00 | 0.00 | 0.00 | 50 | 1011.1 |
| 20260502053756 | 11 | 305 | 19.3 | 35.4 | 0.00 | 0.00 | 0.00 | 49 | 1011.1 |
| 20260502053633 | 11 | 226 | 25.7 | 35.4 | 0.00 | 0.00 | 0.00 | 50 | 1011.1 |
| 20260502053530 | 11 | 332 | 12.9 | 32.2 | 0.00 | 0.00 | 0.00 | 49 | 1011.1 |
| 20260502053429 | 11 | 263 | 12.9 | 32.2 | 0.00 | 0.00 | 0.00 | 49 | 1011.1 |
| 20260502053328 | 11 | 217 | 22.5 | 32.2 | 0.00 | 0.00 | 0.00 | 50 | 1011.1 |
| 20260502053238 | 11 | 251 | 17.7 | 32.2 | 0.00 | 0.00 | 0.00 | 48 | 1011.1 |
| 20260502053147 | 11 | 318 | 17.7 | 32.2 | 0.00 | 0.00 | 0.00 | 48 | 1011.1 |
| 20260502053029 | 11 | 332 | 19.3 | 32.2 | 0.00 | 0.00 | 0.00 | 49 | 1011.1 |
| 20260502052947 | 11 | 45 | 16.1 | 32.2 | 0.00 | 0.00 | 0.00 | 49 | 1011.1 |
| 20260502052905 | 11 | 311 | 17.7 | 32.2 | 0.00 | 0.00 | 0.00 | 49 | 1011.3 |
| 20260502052742 | 11 | 188 | 22.5 | 32.2 | 0.00 | 0.00 | 0.00 | 49 | 1011.3 |
| 20260502052641 | 11 | 311 | 16.1 | 30.6 | 0.00 | 0.00 | 0.00 | 49 | 1011.3 |
| 20260502052538 | 11 | 227 | 17.7 | 32.2 | 0.00 | 0.00 | 0.00 | 49 | 1011.3 |
| 20260502052437 | 11 | 335 | 16.1 | 32.2 | 0.00 | 0.00 | 0.00 | 50 | 1011.3 |
| 20260502052355 | 11 | 241 | 12.9 | 32.2 | 0.00 | 0.00 | 0.00 | 49 | 1011.3 |
| 20260502052238 | 11 | 158 | 11.3 | 32.2 | 0.00 | 0.00 | 0.00 | 49 | 1011.3 |
| 20260502052157 | 11 | 230 | 12.9 | 32.2 | 0.00 | 0.00 | 0.00 | 48 | 1011.3 |
| 20260502052033 | 11 | 199 | 14.5 | 32.2 | 0.00 | 0.00 | 0.00 | 48 | 1011.3 |
| 20260502051934 | 11 | 289 | 11.3 | 32.2 | 0.00 | 0.00 | 0.00 | 47 | 1011.3 |
| 20260502051832 | 11 | 48 | 22.5 | 32.2 | 0.00 | 0.00 | 0.00 | 48 | 1011.3 |
| 20260502051741 | 11 | 326 | 25.7 | 32.2 | 0.00 | 0.00 | 0.00 | 47 | 1011.3 |
| 20260502051649 | 11 | 176 | 20.9 | 32.2 | 0.00 | 0.00 | 0.00 | 49 | 1011.3 |
| 20260502051527 | 11 | 64 | 16.1 | 29.0 | 0.00 | 0.00 | 0.00 | 48 | 1011.3 |
| 20260502051429 | 11 | 226 | 16.1 | 29.0 | 0.00 | 0.00 | 0.00 | 47 | 1011.3 |
| 20260502051328 | 11 | 110 | 12.9 | 29.0 | 0.00 | 0.00 | 0.00 | 47 | 1011.1 |
| 20260502051225 | 11 | 145 | 16.1 | 29.0 | 0.00 | 0.00 | 0.00 | 49 | 1011.1 |
| 20260502051123 | 11 | 333 | 12.9 | 29.0 | 0.00 | 0.00 | 0.00 | 49 | 1011.1 |
| 20260502051024 | 11 | 265 | 17.7 | 29.0 | 0.00 | 0.00 | 0.00 | 49 | 1011.1 |
| 20260502050943 | 11 | 175 | 14.5 | 29.0 | 0.00 | 0.00 | 0.00 | 50 | 1011.1 |
| 20260502050841 | 11 | 304 | 16.1 | 27.4 | 0.00 | 0.00 | 0.00 | 48 | 1011.1 |
| 20260502050759 | 11 | 195 | 12.9 | 27.4 | 0.00 | 0.00 | 0.00 | 48 | 1011.1 |
| 20260502050659 | 11 | 191 | 11.3 | 27.4 | 0.00 | 0.00 | 0.00 | 48 | 1011.1 |
| 20260502050537 | 11 | 289 | 16.1 | 33.8 | 0.00 | 0.00 | 0.00 | 48 | 1011.1 |
| 20260502050435 | 11 | 61 | 12.9 | 33.8 | 0.00 | 0.00 | 0.00 | 48 | 1011.1 |
| 20260502050335 | 11 | 160 | 12.9 | 33.8 | 0.00 | 0.00 | 0.00 | 48 | 1011.1 |
| 20260502050244 | 11 | 157 | 14.5 | 33.8 | 0.00 | 0.00 | 0.00 | 48 | 1011.1 |
| 20260502050154 | 11 | 332 | 8.0 | 33.8 | 0.00 | 0.00 | 0.00 | 49 | 1011.1 |
| 20260502050050 | 11 | 109 | 12.9 | 33.8 | 0.00 | 0.00 | 0.00 | 47 | 1011.1 |
| 20260502045946 | 11 | 248 | 12.9 | 33.8 | 0.00 | 0.00 | 0.00 | 47 | 1011.1 |
| 20260502045827 | 11 | 278 | 19.3 | 33.8 | 0.00 | 0.00 | 0.00 | 47 | 1010.9 |
| 20260502045745 | 11 | 248 | 24.1 | 33.8 | 0.00 | 0.00 | 0.00 | 47 | 1010.9 |
| 20260502045704 | 11 | 296 | 19.3 | 32.2 | 0.00 | 0.00 | 0.00 | 47 | 1010.9 |
| 20260502045540 | 11 | 335 | 20.9 | 32.2 | 0.00 | 0.00 | 0.00 | 47 | 1010.9 |
| 20260502045458 | 11 | 271 | 22.5 | 32.2 | 0.00 | 0.00 | 0.00 | 47 | 1010.9 |
| 20260502045335 | 11 | 240 | 20.9 | 32.2 | 0.00 | 0.00 | 0.00 | 47 | 1010.9 |
| 20260502045233 | 11 | 233 | 17.7 | 30.6 | 0.00 | 0.00 | 0.00 | 47 | 1010.9 |
| 20260502045130 | 11 | 200 | 19.3 | 30.6 | 0.00 | 0.00 | 0.00 | 48 | 1010.9 |
| 20260502045034 | 11 | 277 | 14.5 | 27.4 | 0.00 | 0.00 | 0.00 | 48 | 1010.9 |
| 20260502044933 | 11 | 320 | 12.9 | 27.4 | 0.00 | 0.00 | 0.00 | 48 | 1010.9 |
| 20260502044831 | 11 | 322 | 17.7 | 27.4 | 0.00 | 0.00 | 0.00 | 48 | 1010.9 |
| 20260502044748 | 11 | 126 | 19.3 | 25.7 | 0.00 | 0.00 | 0.00 | 48 | 1010.9 |
| 20260502044658 | 11 | 240 | 16.1 | 27.4 | 0.00 | 0.00 | 0.00 | 49 | 1010.9 |
| 20260502044535 | 11 | 229 | 11.3 | 35.4 | 0.00 | 0.00 | 0.00 | 49 | 1010.9 |
| 20260502044433 | 11 | 329 | 11.3 | 35.4 | 0.00 | 0.00 | 0.00 | 49 | 1010.9 |
| 20260502044331 | 11 | 322 | 14.5 | 35.4 | 0.00 | 0.00 | 0.00 | 49 | 1010.9 |
| 20260502044254 | 11 | 278 | 11.3 | 35.4 | 0.00 | 0.00 | 0.00 | 49 | 1010.9 |
| 20260502044132 | 11 | 145 | 11.3 | 35.4 | 0.00 | 0.00 | 0.00 | 48 | 1010.9 |
| 20260502044030 | 11 | 229 | 14.5 | 35.4 | 0.00 | 0.00 | 0.00 | 50 | 1010.9 |
| 20260502043928 | 11 | 106 | 16.1 | 35.4 | 0.00 | 0.00 | 0.00 | 50 | 1010.9 |
| 20260502043827 | 11 | 260 | 16.1 | 35.4 | 0.00 | 0.00 | 0.00 | 50 | 1010.9 |
| 20260502043725 | 11 | 208 | 17.7 | 35.4 | 0.00 | 0.00 | 0.00 | 49 | 1010.9 |
| 20260502043643 | 11 | 292 | 19.3 | 35.4 | 0.00 | 0.00 | 0.00 | 49 | 1010.9 |
| 20260502043601 | 11 | 253 | 16.1 | 30.6 | 0.00 | 0.00 | 0.00 | 49 | 1010.9 |
| 20260502043442 | 11 | 313 | 12.9 | 30.6 | 0.00 | 0.00 | 0.00 | 49 | 1010.9 |
| 20260502043341 | 11 | 287 | 14.5 | 30.6 | 0.00 | 0.00 | 0.00 | 48 | 1010.9 |
| 20260502043259 | 11 | 247 | 14.5 | 30.6 | 0.00 | 0.00 | 0.00 | 47 | 1010.9 |
| 20260502043211 | 11 | 311 | 19.3 | 30.6 | 0.00 | 0.00 | 0.00 | 47 | 1010.9 |
| 20260502043108 | 12 | 291 | 20.9 | 30.6 | 0.00 | 0.00 | 0.00 | 49 | 1010.9 |
| 20260502043006 | 12 | 92 | 16.1 | 32.2 | 0.00 | 0.00 | 0.00 | 49 | 1010.9 |
| 20260502042902 | 12 | 147 | 16.1 | 32.2 | 0.00 | 0.00 | 0.00 | 50 | 1011.0 |
| 20260502042740 | 12 | 131 | 22.5 | 32.2 | 0.00 | 0.00 | 0.00 | 50 | 1011.0 |
| 20260502042659 | 12 | 229 | 17.7 | 32.2 | 0.00 | 0.00 | 0.00 | 50 | 1011.0 |
| 20260502042600 | 12 | 299 | 9.7 | 32.2 | 0.00 | 0.00 | 0.00 | 49 | 1011.0 |
| 20260502042440 | 12 | 265 | 14.5 | 32.2 | 0.00 | 0.00 | 0.00 | 48 | 1011.0 |
| 20260502042337 | 12 | 299 | 12.9 | 32.2 | 0.00 | 0.00 | 0.00 | 49 | 1011.0 |
| 20260502042236 | 12 | 281 | 17.7 | 32.2 | 0.00 | 0.00 | 0.00 | 49 | 1011.0 |
| 20260502042154 | 12 | 301 | 22.5 | 32.2 | 0.00 | 0.00 | 0.00 | 51 | 1011.0 |
| 20260502042035 | 12 | 260 | 24.1 | 30.6 | 0.00 | 0.00 | 0.00 | 49 | 1011.0 |
| 20260502041932 | 12 | 275 | 14.5 | 27.4 | 0.00 | 0.00 | 0.00 | 50 | 1011.0 |
| 20260502041832 | 12 | 316 | 16.1 | 27.4 | 0.00 | 0.00 | 0.00 | 50 | 1011.0 |
| 20260502041802 | 12 | 304 | 14.5 | 27.4 | 0.00 | 0.00 | 0.00 | 50 | 1011.0 |
| 20260502041653 | 12 | 296 | 11.3 | 30.6 | 0.00 | 0.00 | 0.00 | 50 | 1011.0 |
| 20260502041531 | 12 | 253 | 17.7 | 30.6 | 0.00 | 0.00 | 0.00 | 50 | 1011.0 |
| 20260502041428 | 12 | 261 | 11.3 | 30.6 | 0.00 | 0.00 | 0.00 | 50 | 1011.0 |
| 20260502041347 | 12 | 254 | 8.0 | 30.6 | 0.00 | 0.00 | 0.00 | 51 | 1011.1 |
| 20260502041228 | 12 | 295 | 12.9 | 30.6 | 0.00 | 0.00 | 0.00 | 51 | 1011.1 |
| 20260502041145 | 12 | 147 | 16.1 | 30.6 | 0.00 | 0.00 | 0.00 | 51 | 1011.1 |
| 20260502041104 | 12 | 206 | 14.5 | 30.6 | 0.00 | 0.00 | 0.00 | 51 | 1011.1 |
| 20260502041002 | 12 | 167 | 12.9 | 30.6 | 0.00 | 0.00 | 0.00 | 51 | 1011.1 |
| 20260502040840 | 12 | 99 | 9.7 | 30.6 | 0.00 | 0.00 | 0.00 | 51 | 1011.1 |
| 20260502040724 | 12 | 268 | 16.1 | 30.6 | 0.00 | 0.00 | 0.00 | 51 | 1011.1 |
| 20260502040642 | 12 | 294 | 14.5 | 27.4 | 0.00 | 0.00 | 0.00 | 51 | 1011.1 |
| 20260502040541 | 12 | 329 | 19.3 | 27.4 | 0.00 | 0.00 | 0.00 | 50 | 1011.1 |
| 20260502040438 | 12 | 203 | 17.7 | 27.4 | 0.00 | 0.00 | 0.00 | 50 | 1011.1 |
| 20260502040336 | 12 | 52 | 14.5 | 27.4 | 0.00 | 0.00 | 0.00 | 50 | 1011.1 |
| 20260502040253 | 12 | 326 | 19.3 | 27.4 | 0.00 | 0.00 | 0.00 | 50 | 1011.1 |
| 20260502040225 | 12 | 253 | 14.5 | 32.2 | 0.00 | 0.00 | 0.00 | 50 | 1011.1 |
| 20260502040041 | 12 | 93 | 12.9 | 32.2 | 0.00 | 0.00 | 0.00 | 50 | 1011.1 |
| 20260502035942 | 12 | 354 | 19.3 | 32.2 | 0.00 | 0.00 | 0.00 | 50 | 1011.1 |
| 20260502035901 | 12 | 316 | 17.7 | 32.2 | 0.00 | 0.00 | 0.00 | 50 | 1011.0 |
| 20260502035758 | 12 | 296 | 14.5 | 32.2 | 0.00 | 0.00 | 0.00 | 51 | 1011.0 |
| 20260502035635 | 12 | 284 | 14.5 | 32.2 | 0.00 | 0.00 | 0.00 | 50 | 1011.0 |
| 20260502035534 | 12 | 199 | 11.3 | 32.2 | 0.00 | 0.00 | 0.00 | 50 | 1011.0 |
| 20260502035433 | 12 | 330 | 16.1 | 32.2 | 0.00 | 0.00 | 0.00 | 49 | 1011.0 |
| 20260502035330 | 12 | 167 | 19.3 | 32.2 | 0.00 | 0.00 | 0.00 | 49 | 1011.0 |
| 20260502035230 | 12 | 200 | 17.7 | 32.2 | 0.00 | 0.00 | 0.00 | 50 | 1011.0 |
| 20260502035133 | 12 | 209 | 16.1 | 25.7 | 0.00 | 0.00 | 0.00 | 50 | 1011.0 |
| 20260502035031 | 12 | 288 | 16.1 | 25.7 | 0.00 | 0.00 | 0.00 | 50 | 1011.0 |
| 20260502034930 | 12 | 305 | 16.1 | 25.7 | 0.00 | 0.00 | 0.00 | 50 | 1011.0 |
| 20260502034827 | 12 | 103 | 16.1 | 25.7 | 0.00 | 0.00 | 0.00 | 50 | 1011.0 |
| 20260502034738 | 12 | 128 | 11.3 | 22.5 | 0.00 | 0.00 | 0.00 | 51 | 1011.0 |
| 20260502034647 | 12 | 332 | 9.7 | 22.5 | 0.00 | 0.00 | 0.00 | 52 | 1011.0 |
| 20260502034545 | 12 | 335 | 14.5 | 22.5 | 0.00 | 0.00 | 0.00 | 52 | 1011.0 |
| 20260502034503 | 12 | 296 | 11.3 | 22.5 | 0.00 | 0.00 | 0.00 | 51 | 1011.0 |
| 20260502034405 | 12 | 178 | 12.9 | 22.5 | 0.00 | 0.00 | 0.00 | 51 | 1011.2 |
| 20260502034242 | 12 | 178 | 14.5 | 22.5 | 0.00 | 0.00 | 0.00 | 51 | 1011.2 |
| 20260502034141 | 12 | 212 | 16.1 | 22.5 | 0.00 | 0.00 | 0.00 | 52 | 1011.2 |
| 20260502034038 | 12 | 209 | 17.7 | 22.5 | 0.00 | 0.00 | 0.00 | 51 | 1011.2 |
| 20260502033935 | 12 | 220 | 14.5 | 22.5 | 0.00 | 0.00 | 0.00 | 51 | 1011.2 |
| 20260502033834 | 12 | 313 | 12.9 | 22.5 | 0.00 | 0.00 | 0.00 | 51 | 1011.2 |
| 20260502033731 | 12 | 216 | 12.9 | 22.5 | 0.00 | 0.00 | 0.00 | 51 | 1011.2 |
| 20260502033653 | 12 | 280 | 8.0 | 22.5 | 0.00 | 0.00 | 0.00 | 51 | 1011.2 |
| 20260502033529 | 12 | 287 | 11.3 | 25.7 | 0.00 | 0.00 | 0.00 | 52 | 1011.2 |
| 20260502033425 | 12 | 301 | 14.5 | 25.7 | 0.00 | 0.00 | 0.00 | 54 | 1011.2 |
| 20260502033343 | 12 | 232 | 11.3 | 25.7 | 0.00 | 0.00 | 0.00 | 54 | 1011.2 |
| 20260502033241 | 12 | 179 | 11.3 | 25.7 | 0.00 | 0.00 | 0.00 | 54 | 1011.2 |
| 20260502033212 | 12 | 58 | 16.1 | 25.7 | 0.00 | 0.00 | 0.00 | 54 | 1011.2 |
| 20260502033027 | 12 | 155 | 8.0 | 25.7 | 0.00 | 0.00 | 0.00 | 53 | 1011.2 |
| 20260502032926 | 12 | 305 | 14.5 | 25.7 | 0.00 | 0.00 | 0.00 | 53 | 1011.2 |
| 20260502032844 | 12 | 285 | 16.1 | 25.7 | 0.00 | 0.00 | 0.00 | 53 | 1011.6 |
| 20260502032726 | 12 | 76 | 17.7 | 27.4 | 0.00 | 0.00 | 0.00 | 54 | 1011.6 |
| 20260502032644 | 12 | 206 | 12.9 | 27.4 | 0.00 | 0.00 | 0.00 | 54 | 1011.6 |
| 20260502032542 | 12 | 280 | 11.3 | 27.4 | 0.00 | 0.00 | 0.00 | 55 | 1011.6 |
| 20260502032439 | 12 | 332 | 14.5 | 27.4 | 0.00 | 0.00 | 0.00 | 53 | 1011.6 |
| 20260502032338 | 12 | 79 | 16.1 | 27.4 | 0.00 | 0.00 | 0.00 | 53 | 1011.6 |
| 20260502032256 | 12 | 353 | 16.1 | 27.4 | 0.00 | 0.00 | 0.00 | 53 | 1011.6 |
| 20260502032133 | 12 | 134 | 8.0 | 27.4 | 0.00 | 0.00 | 0.00 | 53 | 1011.6 |
| 20260502032031 | 12 | 294 | 9.7 | 27.4 | 0.00 | 0.00 | 0.00 | 53 | 1011.6 |
| 20260502031933 | 12 | 325 | 19.3 | 27.4 | 0.00 | 0.00 | 0.00 | 53 | 1011.6 |
| 20260502031852 | 12 | 175 | 17.7 | 27.4 | 0.00 | 0.00 | 0.00 | 55 | 1011.6 |
| 20260502031741 | 12 | 246 | 16.1 | 27.4 | 0.00 | 0.00 | 0.00 | 55 | 1011.6 |
| 20260502031649 | 12 | 328 | 14.5 | 27.4 | 0.00 | 0.00 | 0.00 | 55 | 1011.6 |
| 20260502031526 | 12 | 326 | 12.9 | 27.4 | 0.00 | 0.00 | 0.00 | 56 | 1011.6 |
| 20260502031426 | 12 | 333 | 11.3 | 27.4 | 0.00 | 0.00 | 0.00 | 56 | 1011.6 |
| 20260502031324 | 12 | 332 | 11.3 | 29.0 | 0.00 | 0.00 | 0.00 | 56 | 1011.7 |
| 20260502031243 | 12 | 134 | 12.9 | 29.0 | 0.00 | 0.00 | 0.00 | 56 | 1011.7 |
| 20260502031140 | 12 | 239 | 12.9 | 29.0 | 0.00 | 0.00 | 0.00 | 56 | 1011.7 |
| 20260502031103 | 12 | 329 | 12.9 | 29.0 | 0.00 | 0.00 | 0.00 | 56 | 1011.7 |
| 20260502030940 | 12 | 243 | 11.3 | 29.0 | 0.00 | 0.00 | 0.00 | 56 | 1011.7 |
| 20260502030839 | 12 | 318 | 6.4 | 29.0 | 0.00 | 0.00 | 0.00 | 55 | 1011.7 |
| 20260502030737 | 12 | 239 | 12.9 | 29.0 | 0.00 | 0.00 | 0.00 | 55 | 1011.7 |
| 20260502030634 | 12 | 330 | 16.1 | 29.0 | 0.00 | 0.00 | 0.00 | 56 | 1011.7 |
| 20260502030532 | 13 | 246 | 16.1 | 29.0 | 0.00 | 0.00 | 0.00 | 57 | 1011.7 |
| 20260502030430 | 13 | 176 | 12.9 | 29.0 | 0.00 | 0.00 | 0.00 | 57 | 1011.7 |
| 20260502030333 | 13 | 350 | 14.5 | 29.0 | 0.00 | 0.00 | 0.00 | 57 | 1011.7 |
| 20260502030244 | 13 | 292 | 8.0 | 29.0 | 0.00 | 0.00 | 0.00 | 56 | 1011.7 |
| 20260502030153 | 13 | 313 | 9.7 | 29.0 | 0.00 | 0.00 | 0.00 | 56 | 1011.7 |
| 20260502030030 | 13 | 265 | 6.4 | 29.0 | 0.00 | 0.00 | 0.00 | 56 | 1011.7 |
| 20260502025948 | 13 | 304 | 16.1 | 29.0 | 0.00 | 0.00 | 0.00 | 57 | 1011.7 |
| 20260502025845 | 13 | 325 | 16.1 | 29.0 | 0.00 | 0.00 | 0.00 | 57 | 1011.7 |
| 20260502025803 | 13 | 167 | 14.5 | 29.0 | 0.00 | 0.00 | 0.00 | 57 | 1011.7 |
| 20260502025641 | 13 | 280 | 16.1 | 29.0 | 0.00 | 0.00 | 0.00 | 57 | 1011.7 |
| 20260502025543 | 13 | 56 | 4.8 | 19.3 | 0.00 | 0.00 | 0.00 | 57 | 1011.7 |
| 20260502025441 | 13 | 325 | 9.7 | 24.1 | 0.00 | 0.00 | 0.00 | 57 | 1011.7 |
| 20260502025340 | 13 | 339 | 9.7 | 24.1 | 0.00 | 0.00 | 0.00 | 57 | 1011.7 |
| 20260502025238 | 13 | 333 | 11.3 | 24.1 | 0.00 | 0.00 | 0.00 | 57 | 1011.7 |
| 20260502025137 | 13 | 274 | 14.5 | 24.1 | 0.00 | 0.00 | 0.00 | 57 | 1011.7 |
| 20260502025036 | 13 | 360 | 11.3 | 24.1 | 0.00 | 0.00 | 0.00 | 59 | 1011.7 |
| 20260502024953 | 13 | 332 | 6.4 | 24.1 | 0.00 | 0.00 | 0.00 | 59 | 1011.7 |
| 20260502024835 | 13 | 332 | 11.3 | 24.1 | 0.00 | 0.00 | 0.00 | 58 | 1011.7 |
| 20260502024755 | 13 | 330 | 12.9 | 24.1 | 0.00 | 0.00 | 0.00 | 58 | 1011.7 |
| 20260502024725 | 13 | 248 | 14.5 | 24.1 | 0.00 | 0.00 | 0.00 | 59 | 1011.7 |
| 20260502024542 | 13 | 244 | 8.0 | 29.0 | 0.00 | 0.00 | 0.00 | 59 | 1011.7 |
| 20260502024440 | 13 | 88 | 11.3 | 29.0 | 0.00 | 0.00 | 0.00 | 59 | 1011.7 |
| 20260502024337 | 13 | 329 | 8.0 | 29.0 | 0.00 | 0.00 | 0.00 | 59 | 1011.3 |
| 20260502024257 | 13 | 330 | 9.7 | 29.0 | 0.00 | 0.00 | 0.00 | 59 | 1011.3 |
| 20260502024135 | 13 | 354 | 11.3 | 29.0 | 0.00 | 0.00 | 0.00 | 59 | 1011.3 |
| 20260502024054 | 13 | 330 | 8.0 | 29.0 | 0.00 | 0.00 | 0.00 | 59 | 1011.3 |
| 20260502023938 | 13 | 289 | 11.3 | 29.0 | 0.00 | 0.00 | 0.00 | 58 | 1011.3 |
| 20260502023837 | 13 | 188 | 12.9 | 29.0 | 0.00 | 0.00 | 0.00 | 58 | 1011.3 |
| 20260502023736 | 13 | 332 | 16.1 | 29.0 | 0.00 | 0.00 | 0.00 | 59 | 1011.3 |
| 20260502023633 | 13 | 311 | 8.0 | 22.5 | 0.00 | 0.00 | 0.00 | 59 | 1011.3 |
| 20260502023552 | 13 | 154 | 12.9 | 22.5 | 0.00 | 0.00 | 0.00 | 59 | 1011.3 |
| 20260502023451 | 13 | 243 | 9.7 | 22.5 | 0.00 | 0.00 | 0.00 | 59 | 1011.3 |
| 20260502023333 | 13 | 192 | 12.9 | 22.5 | 0.00 | 0.00 | 0.00 | 58 | 1011.3 |
| 20260502023302 | 13 | 270 | 14.5 | 22.5 | 0.00 | 0.00 | 0.00 | 58 | 1011.3 |
| 20260502023154 | 13 | 256 | 16.1 | 22.5 | 0.00 | 0.00 | 0.00 | 59 | 1011.3 |
| 20260502023030 | 13 | 174 | 8.0 | 22.5 | 0.00 | 0.00 | 0.00 | 59 | 1011.3 |
| 20260502022929 | 13 | 333 | 16.1 | 22.5 | 0.00 | 0.00 | 0.00 | 59 | 1011.3 |
| 20260502022828 | 13 | 196 | 14.5 | 22.5 | 0.00 | 0.00 | 0.00 | 60 | 1011.1 |
| 20260502022725 | 13 | 357 | 6.4 | 20.9 | 0.00 | 0.00 | 0.00 | 60 | 1011.1 |
| 20260502022624 | 13 | 333 | 6.4 | 20.9 | 0.00 | 0.00 | 0.00 | 60 | 1011.1 |
| 20260502022542 | 13 | 335 | 8.0 | 20.9 | 0.00 | 0.00 | 0.00 | 59 | 1011.1 |
| 20260502022444 | 13 | 329 | 9.7 | 20.9 | 0.00 | 0.00 | 0.00 | 59 | 1011.1 |
| 20260502022402 | 13 | 59 | 11.3 | 22.5 | 0.00 | 0.00 | 0.00 | 59 | 1011.1 |
| 20260502022239 | 13 | 107 | 12.9 | 27.4 | 0.00 | 0.00 | 0.00 | 60 | 1011.1 |
| 20260502022138 | 13 | 162 | 11.3 | 27.4 | 0.00 | 0.00 | 0.00 | 59 | 1011.1 |
| 20260502022039 | 13 | 275 | 8.0 | 27.4 | 0.00 | 0.00 | 0.00 | 59 | 1011.1 |
| 20260502021938 | 13 | 168 | 8.0 | 27.4 | 0.00 | 0.00 | 0.00 | 59 | 1011.1 |
| 20260502021835 | 13 | 320 | 12.9 | 27.4 | 0.00 | 0.00 | 0.00 | 58 | 1011.1 |
| 20260502021738 | 13 | 330 | 12.9 | 27.4 | 0.00 | 0.00 | 0.00 | 59 | 1011.1 |
| 20260502021646 | 13 | 193 | 12.9 | 27.4 | 0.00 | 0.00 | 0.00 | 59 | 1011.1 |
| 20260502021543 | 13 | 212 | 12.9 | 27.4 | 0.00 | 0.00 | 0.00 | 60 | 1011.1 |
| 20260502021440 | 13 | 360 | 11.3 | 27.4 | 0.00 | 0.00 | 0.00 | 60 | 1011.1 |
| 20260502021342 | 13 | 306 | 11.3 | 27.4 | 0.00 | 0.00 | 0.00 | 60 | 1011.0 |
| 20260502021240 | 13 | 227 | 8.0 | 22.5 | 0.00 | 0.00 | 0.00 | 60 | 1011.0 |
| 20260502021138 | 13 | 330 | 11.3 | 22.5 | 0.00 | 0.00 | 0.00 | 60 | 1011.0 |
| 20260502021037 | 13 | 160 | 12.9 | 22.5 | 0.00 | 0.00 | 0.00 | 59 | 1011.0 |
| 20260502020939 | 13 | 54 | 11.3 | 22.5 | 0.00 | 0.00 | 0.00 | 61 | 1011.0 |
| 20260502020835 | 13 | 333 | 8.0 | 22.5 | 0.00 | 0.00 | 0.00 | 61 | 1011.0 |
| 20260502020733 | 13 | 148 | 11.3 | 22.5 | 0.00 | 0.00 | 0.00 | 60 | 1011.0 |
| 20260502020653 | 13 | 346 | 12.9 | 22.5 | 0.00 | 0.00 | 0.00 | 59 | 1011.0 |
| 20260502020531 | 13 | 206 | 14.5 | 22.5 | 0.00 | 0.00 | 0.00 | 59 | 1011.0 |
| 20260502020428 | 13 | 330 | 11.3 | 22.5 | 0.00 | 0.00 | 0.00 | 60 | 1011.0 |
| 20260502020328 | 13 | 343 | 6.4 | 22.5 | 0.00 | 0.00 | 0.00 | 60 | 1011.0 |
| 20260502020240 | 13 | 336 | 11.3 | 22.5 | 0.00 | 0.00 | 0.00 | 59 | 1011.0 |
| 20260502020151 | 13 | 51 | 14.5 | 22.5 | 0.00 | 0.00 | 0.00 | 59 | 1011.0 |
| 20260502020028 | 13 | 226 | 14.5 | 22.5 | 0.00 | 0.00 | 0.00 | 60 | 1011.0 |
| 20260502015946 | 13 | 34 | 11.3 | 22.5 | 0.00 | 0.00 | 0.00 | 61 | 1011.0 |
| 20260502015905 | 13 | 192 | 14.5 | 22.5 | 0.00 | 0.00 | 0.00 | 60 | 1010.8 |
| 20260502015735 | 14 | 346 | 12.9 | 22.5 | 0.00 | 0.00 | 0.00 | 59 | 1010.8 |
| 20260502015635 | 14 | 120 | 14.5 | 22.5 | 0.00 | 0.00 | 0.00 | 62 | 1010.8 |
| 20260502015532 | 14 | 145 | 14.5 | 22.5 | 0.00 | 0.00 | 0.00 | 61 | 1010.8 |
| 20260502015436 | 14 | 247 | 16.1 | 22.5 | 0.00 | 0.00 | 0.00 | 62 | 1010.8 |
| 20260502015334 | 14 | 83 | 3.2 | 22.5 | 0.00 | 0.00 | 0.00 | 62 | 1010.8 |
| 20260502015233 | 14 | 330 | 8.0 | 22.5 | 0.00 | 0.00 | 0.00 | 63 | 1010.8 |
| 20260502015152 | 14 | 328 | 11.3 | 22.5 | 0.00 | 0.00 | 0.00 | 64 | 1010.8 |
| 20260502015030 | 14 | 332 | 6.4 | 22.5 | 0.00 | 0.00 | 0.00 | 64 | 1010.8 |
| 20260502014928 | 14 | 356 | 4.8 | 22.5 | 0.00 | 0.00 | 0.00 | 63 | 1010.8 |
| 20260502014826 | 14 | 356 | 9.7 | 22.5 | 0.00 | 0.00 | 0.00 | 63 | 1010.8 |
| 20260502014730 | 14 | 325 | 6.4 | 19.3 | 0.00 | 0.00 | 0.00 | 64 | 1010.8 |
| 20260502014700 | 14 | 203 | 8.0 | 19.3 | 0.00 | 0.00 | 0.00 | 65 | 1010.8 |
| 20260502014535 | 14 | 174 | 8.0 | 19.3 | 0.00 | 0.00 | 0.00 | 65 | 1010.8 |
| 20260502014432 | 14 | 85 | 8.0 | 17.7 | 0.00 | 0.00 | 0.00 | 65 | 1010.8 |
| 20260502014331 | 14 | 260 | 8.0 | 17.7 | 0.00 | 0.00 | 0.00 | 65 | 1010.9 |
| 20260502014230 | 14 | 251 | 4.8 | 17.7 | 0.00 | 0.00 | 0.00 | 65 | 1010.9 |
| 20260502014128 | 14 | 151 | 9.7 | 17.7 | 0.00 | 0.00 | 0.00 | 66 | 1010.9 |
| 20260502014025 | 14 | 73 | 8.0 | 17.7 | 0.00 | 0.00 | 0.00 | 66 | 1010.9 |
| 20260502013931 | 14 | 124 | 6.4 | 17.7 | 0.00 | 0.00 | 0.00 | 66 | 1010.9 |
| 20260502013850 | 14 | 326 | 6.4 | 16.1 | 0.00 | 0.00 | 0.00 | 65 | 1010.9 |